GFSSE_prec_radar_069.txt.gz
Reflectivity
1 -16 -20 -20 -20 -20 -20 -20 -20 -20 -20 -20 -20 -20 -20 -20 -20 -20 -20 -20 -20 -20 -20 -20 -20 -20 -20 -20 -20 -9 -20 -20 -20 -20 -20 -20 -20 -20 -20 -20 -20 -20 -20
9 -15 -20 -20 -20 -20 -20 -20 -20 -20 -20 -20 -20 -20 -20 -20 -20 -20 -20 -20 -20 -20 -20 -20 -20 -20 -20 -20 -20 -20 -20 -20 -20 -20 -20 -20 -20 -20 -20 -20 -20 -20 -20
6 0 -20 -20 -20 -20 -20 -20 -20 -20 -20 -20 -20 -20 -20 -20 -20 -20 -20 -20 -20 -20 -20 -20 -20 -20 -20 -20 -20 -20 -20 -20 -20 -20 -20 -20 -20 -20 -20 -20 -20 -20 -20
7 1 10 -7 -20 -20 -20 -20 -20 -20 -20 -20 -20 -20 -20 -20 -20 -20 -20 -20 -20 -20 -20 -20 -20 -20 -20 -20 -20 -20 -20 -20 -20 -20 -20 -20 -20 -20 -20 -20 -20 -20 -20
17 7 8 5 3 4 -4 -7 0 -0 -20 -20 -20 -20 -20 -20 -20 -20 -20 -20 -20 -20 -20 -20 -20 -20 -20 -20 -20 -20 -20 -20 -20 -20 -20 -20 -20 -20 -20 -20 -20 -20 -20
5 -4 -3 -20 6 7 7 6 2 -17 -20 -20 -20 -20 -20 -20 -20 -20 -14 -20 -20 -20 -20 -20 -20 -20 -20 -20 -20 -20 -20 -20 -20 -20 -20 -20 -20 -20 -20 -20 -20 -20 -20
12 -20 -20 -9 -5 2 -20 -20 -20 -20 -20 -20 -20 -20 -19 -20 -20 -20 -14 -20 -20 -20 -20 -20 -20 -20 -20 -20 -20 -20 -20 -20 -20 -20 -20 -20 -20 -20 -20 -20 -20 -20 -20
17 15 -20 -20 22 23 33 -11 -20 -8 11 10 4 10 -8 -16 -18 -20 -20 -20 -20 -20 -20 -20 -20 -20 -20 -20 -20 -20 -20 -20 -20 -20 -20 -20 -20 -20 -20 -20 -20 -20 -20
-10 13 31 23 18 18 25 13 -2 -20 -0 -1 10 -19 -20 -20 -20 -20 -14 -18 4 -11 -20 -20 -20 -20 -20 -20 -20 -20 -20 -20 -20 -20 -20 -20 -20 -20 -20 -20 -20 -20 -20
24 33 30 30 23 26 35 19 18 -8 -4 9 5 -20 -20 -20 -20 -20 -20 -20 -20 -20 -20 -20 -20 -20 -20 -20 -20 -20 -20 -20 -20 -20 -20 -20 -20 -20 -20 -20 -20 -20 -20
30 32 32 34 32 40 27 31 15 25 7 9 14 -18 -17 -20 -20 -20 -20 -14 -20 -20 -20 -20 -20 -20 -20 -20 -20 -20 -20 -20 -20 -20 -20 -20 -20 -20 -7 -20 -20 -20 -20
1 28 23 39 43 39 41 34 31 26 12 8 5 -20 -15 1 -11 -20 -5 -20 -20 -20 -20 -20 -20 -20 -20 -20 -20 -20 -20 -20 -20 -20 -20 -20 -20 -20 -20 -20 -20 -20 -20
-2 20 2 17 -14 -9 30 18 21 9 5 -20 -19 -12 -18 -20 -20 -20 -20 -20 -20 -20 -20 -20 -20 -20 -20 -20 -20 -20 -20 -20 -20 -20 -20 -20 -20 -20 -7 -20 -20 -20 -20
31 29 34 31 34 33 33 31 25 21 15 3 -16 -20 -20 -20 -20 -20 -20 -17 -20 -17 -20 -20 -20 -20 -20 -20 -20 -20 -20 -20 -20 -20 -20 -20 -20 -20 -4 -20 -20 -20 -20
40 25 30 32 35 14 -8 11 13 13 6 -15 -20 -20 -20 -19 -20 -14 -7 6 0 -20 -20 -20 -20 -20 -20 -20 -20 -20 -20 -20 -20 -20 -20 -20 -20 -20 -20 0 -15 -20 -20
30 25 32 29 32 24 15 12 -16 -20 -20 -20 -20 -20 -17 -20 -8 -20 -20 -9 -20 -20 -20 -20 -20 -20 -20 -20 -20 -20 -20 -20 -20 -20 -20 -20 -20 -20 -20 -20 -20 -20 -20
-11 -1 -3 8 7 14 16 4 -7 3 -0 8 11 24 -10 27 10 -20 -20 -17 -20 -20 -20 -20 -20 -20 -20 -20 -20 -20 -20 -20 -20 -20 -20 -20 -20 -20 -20 -20 -20 -20 -20
-20 -20 -14 -20 -4 3 -6 -20 -20 -20 -5 25 25 -9 -13 1 2 -20 -20 -20 -20 -20 -20 -20 -20 -20 -20 -20 -20 -20 -20 -20 -20 -20 -20 -20 -20 -20 -20 -20 -20 -20 -20
-20 -20 -20 -20 -20 -20 -20 -20 -20 -20 -20 -2 25 27 -15 -20 -20 -20 -20 -20 -20 -20 -20 -20 -20 -20 -20 -20 -20 -20 -20 -20 -20 -20 -20 -20 -20 -20 -20 -20 -20 -20 -20
-17 -20 -20 -20 -14 -15 -20 -20 -20 -20 -20 -20 15 28 -20 -20 -20 -20 -20 -20 -20 -20 -20 -20 -20 -20 -20 -20 -20 -20 -20 -20 -20 -20 -20 -20 -20 -20 -20 -20 -20 -20 -20
-20 -20 -20 -20 -20 -20 -20 -20 -20 -20 -15 25 -20 -20 -20 -20 -20 -20 -20 -20 -20 -20 -20 -20 -20 -20 -20 -20 -20 -20 -20 -20 -20 -20 -20 -20 -20 -20 -20 -20 -20 -20 -20
-20 -20 -20 -20 -20 -9 -20 -20 -20 -20 -20 -8 -4 -20 -20 -20 -20 -20 -20 -20 -20 -20 -20 -20 -20 -20 -20 -20 -20 -20 -20 -20 -20 -20 -20 -20 -20 -20 -20 -20 -20 -20 -20
-20 -20 -20 -20 -20 -20 -20 -20 -20 -20 -20 -6 18 -20 -20 -20 -20 -20 -20 -20 -20 -20 -20 -20 -20 -20 -20 -20 -20 -20 -20 -20 -20 -20 -20 -20 -20 -20 -20 -20 -20 -20 -20
-20 -20 -20 -20 -20 -20 -20 -20 -20 -20 13 10 -20 -8 -20 -20 -20 -20 -20 -20 -20 -20 -20 -20 -20 -20 -20 -20 -20 -20 -20 -20 -20 -20 -20 -20 -20 -20 -20 -20 -20 -20 -20
-20 -20 -20 -20 -20 -20 -20 19 -20 -20 24 26 -8 -20 -20 -20 -20 -20 -20 -20 -20 -12 -20 20 -20 -20 -20 -20 -20 -20 -20 -20 -20 -20 -20 -20 -20 -20 -20 -20 -20 -20 -20
-20 -20 -20 -20 -20 -20 -18 -20 -1 -20 25 27 -20 -20 -20 -20 -20 -20 -20 -20 -20 -20 -11 -5 -17 -20 -20 -20 -20 -20 -20 -20 -20 -20 -20 -20 -20 -20 -20 -20 -20 -20 -20

GFSSE_prec_radar_072.txt.gz
Reflectivity
-14 -20 1 10 6 6 -3 -20 -20 -20 -20 -20 -1 -8 -20 -20 -20 -20 -20 -20 -20 -20 -20 -20 -20 -20 -20 -20 -20 -20 -20 -20 -20 -20 -20 -20 -20 -20 -20 -20 -20 -20 -20
-19 -20 0 5 10 4 -20 -20 -20 -20 -20 -2 1 -19 -20 -20 -20 -20 -20 -20 -20 -20 -20 -20 -20 -20 -20 -20 -20 -20 -20 -20 -20 -20 -20 -20 -20 -20 -20 -20 -20 -20 -20
-12 -14 -20 3 -9 -19 -20 -20 -20 -20 -20 -20 -20 -20 -20 -20 -20 -20 -20 -20 -20 -20 -20 -20 -20 -20 -20 -20 -20 -20 -20 -20 -20 -20 -20 -20 -20 -20 -20 -20 -20 -20 -20
-20 -20 -20 -20 -20 -20 -20 -20 -20 -20 -20 -20 -20 -20 -20 -20 -20 -20 -20 -20 -20 -20 -20 -20 -20 -20 -20 -20 -20 -20 -20 -20 -20 -20 -20 -20 -20 -20 -20 -20 -20 -20 -20
-20 -20 -4 -20 -20 -20 -20 -20 -20 -20 -20 -20 -20 -20 -20 -20 -20 -20 -20 -20 -20 -20 -20 -20 -20 -20 -20 -20 -20 -20 -20 -20 -20 -20 -20 -20 -20 -20 -20 -20 -20 -20 -20
-3 -18 -20 -20 -20 -20 -20 -20 -20 -20 -20 -20 -20 -20 -20 -20 -20 -20 -20 -20 -20 -20 -20 -20 -20 -20 -20 -20 -20 -20 -20 -20 -20 -20 -20 -20 -20 -20 -20 -20 -20 -20 -20
20 6 -20 -16 -13 -20 -20 -20 -20 -20 -20 -20 -20 -20 -20 -20 -20 -20 -20 -20 -20 -20 -20 -20 -20 -20 -20 -20 -20 -20 -20 -20 -20 -20 -20 -20 -20 -20 -20 -20 -20 -20 -20
26 10 -3 7 -6 -7 -0 -20 -20 -20 -20 -20 -9 10 2 18 -7 -20 -20 -20 -20 -20 -20 -17 -1 -20 -20 -20 -20 -20 -20 -20 -20 -20 -20 -20 -20 -20 -20 -20 -20 -20 -20
39 26 24 20 8 30 30 15 -8 -19 -20 -20 4 3 3 -19 -20 -20 -20 -20 -20 -20 -20 -19 -20 -20 -20 -20 -20 -20 -20 -20 -20 -20 -20 -20 -20 -20 -20 -20 -20 -20 -20
24 28 14 26 27 28 27 27 3 -7 -12 -20 -2 3 -12 -20 -20 -4 -19 -20 -20 -20 -20 -20 -20 -20 -20 -20 -20 -20 -20 -20 -20 -20 -20 -20 -20 1 -20 -20 -20 -20 -20
29 25 28 28 31 35 33 19 -18 -14 -5 7 12 -3 0 5 11 -13 -20 -20 -20 -20 -20 -20 -20 -20 -20 -20 -20 -20 -20 -20 -20 -20 -20 -20 -20 4 -5 -20 -20 -20 -20
-8 22 35 30 30 39 29 27 4 8 16 21 12 -18 -18 -2 1 -20 -20 -20 -20 -20 -20 -20 -20 -20 -20 -20 -20 -20 -20 -20 -20 -20 -20 -20 -20 -20 -12 -20 -20 -20 -20
-2 16 34 31 24 20 32 34 35 26 27 24 6 -12 -14 -18 -20 -20 -20 -20 -20 -20 -20 -20 -20 -20 -20 -20 -20 -20 -20 -20 -20 -20 -20 -20 -20 -20 -6 -20 -20 -20 -20
5 19 28 26 24 -12 25 24 19 31 21 14 25 17 10 -20 -20 -20 -20 -20 -20 -20 -19 -19 -20 -20 -20 -20 -20 -20 -20 -20 -20 -20 -20 -20 -20 -20 -3 -20 -20 -20 -20
13 23 21 6 7 25 20 14 4 24 22 25 24 14 5 -20 -20 -20 -20 -20 -20 -20 -20 -20 -20 -20 -20 -20 -20 -20 -20 -20 -20 -20 -20 -20 -20 -20 -20 3 -20 -20 -20
24 26 33 40 38 36 34 35 29 20 10 13 15 4 -20 -20 -20 -20 -10 -10 -20 -20 -20 -20 -20 -20 -20 -20 -20 -20 -20 -20 -20 -20 -20 -20 -20 -20 -20 -20 -20 -20 -20
23 33 32 27 30 11 28 -8 8 10 5 21 -18 -18 -20 -19 23 -19 -20 -18 -20 -20 -20 -20 -20 -20 -20 -20 -20 -20 -20 -20 -20 -20 -20 -20 -20 -20 -20 -20 -20 -20 -20
28 26 10 6 10 18 -17 5 11 -3 -11 -4 -9 -17 -20 -20 -20 2 -20 -20 -20 -20 -20 -20 -20 -20 -20 -20 -20 -20 -20 -20 -20 -20 -20 -20 -20 -20 -20 -20 -20 -20 -20
-20 -20 -20 -20 5 0 3 4 -1 0 -20 -12 -4 -3 -19 -20 -20 -20 -20 -20 -20 -20 -20 -20 -20 -20 -20 -20 -20 -20 -20 -20 -20 -20 -20 -20 -20 -20 -20 -20 -20 -20 -20
-20 -20 -20 -13 6 -4 -18 -20 -20 -1 7 -5 -1 -19 -5 -20 -20 -20 -20 -20 -20 -20 -20 -20 -20 -20 -20 -20 -20 -20 -20 -20 -20 -20 -20 -20 -20 -20 -20 -20 -20 -20 -20
-20 -20 -20 -15 -4 -20 -20 -20 -20 -9 -4 1 -2 -9 23 -20 -20 -20 -20 -20 -20 -20 -20 -20 -20 -20 -20 -20 -20 -20 -20 -20 -20 -20 -20 -20 -20 -20 -20 -20 -20 -20 -20
-20 -20 -20 -5 15 -20 -20 -20 -20 -5 -1 2 -18 -20 8 -20 -20 -20 -20 -20 -20 -20 -20 -20 -20 -20 -20 -20 -20 -20 -20 -20 -20 -20 -20 -20 -20 -20 -20 -20 -20 -20 -20
-20 -20 -20 -20 -20 -20 -20 -20 -20 -3 -20 -11 -9 19 -3 -20 -20 -20 -20 -20 -20 -20 -20 -20 -20 -20 -20 -20 -20 -20 -20 -20 -20 -20 -20 -20 -20 -20 -20 -20 -20 -20 -20
-20 -20 -20 -20 -20 -20 -20 -20 -20 -20 -20 -20 4 21 -20 -20 -20 -20 -20 -20 -20 -20 -20 -20 -20 -20 -20 -20 -20 -20 -20 -20 -20 -20 -20 -20 -20 -20 -20 -20 -20 -20 -20
-20 -20 -20 -20 -20 -20 -20 -20 -20 -20 1 13 12 35 18 -20 -20 -20 -20 -20 -20 -20 -20 -20 -20 -20 -12 -20 -20 -20 -20 -20 -20 -20 -20 -20 -20 -20 -20 -20 -20 -20 -20
-20 -20 -20 -20 -20 -20 -20 -20 -20 -20 -20 -20 -20 27 19 -20 -20 -20 -20 -20 -20 -20 -20 -7 -15 18 -6 -20 -20 -20 -20 -20 -20 -20 -20 -20 -20 -20 -20 -20 -20 -20 -13

GFSSE_prec_radar_075.txt.gz
Reflectivity
-20 -20 -20 -20 7 2 -20 -20 -20 -20 -5 -17 -20 -20 -20 -20 -20 -20 -20 -20 -20 -20 -20 -20 -20 -20 -20 -20 -20 -20 -20 -20 -20 -20 -20 -20 -20 -20 -20 -20 -20 -20 -20
-20 -20 -20 4 10 -19 -20 -20 -20 -5 -20 -20 -20 -20 -20 -20 -20 -20 -20 -20 -20 -20 -20 -20 -20 -20 -20 -20 -20 -20 -20 -20 -20 -20 -20 -20 -20 -20 -20 -20 -20 -20 -20
-20 -20 -7 4 4 -3 -3 -20 -3 -20 -2 -20 -20 -20 -20 -20 -20 -20 -20 -20 -20 -20 3 -20 -20 -20 -20 -20 -20 -20 -20 -20 -20 -20 -20 -20 -20 -20 -20 -20 -20 -20 -20
-20 -20 -20 7 6 6 1 -1 -5 -1 -6 -20 -20 -20 -20 -20 -20 -20 -20 -20 -20 -20 -16 -20 -20 -20 -20 -20 -20 -20 -20 -20 -20 -20 -16 -20 -20 -20 -20 -20 -20 -20 -20
-19 -20 1 10 11 9 2 1 2 1 -20 -20 -20 -20 -20 -20 -20 -20 -20 -20 -20 -20 -20 -20 -20 -20 -20 -20 -20 -20 -20 -20 -20 -20 -20 -20 -20 -20 -20 -20 -20 -20 -20
-20 -20 -20 3 9 13 7 5 4 -1 -20 -20 -20 -20 -20 -20 -20 -20 -20 -20 -20 -20 -20 0 -20 -20 -20 -20 -20 -20 -20 -20 -20 -20 -20 -20 -20 -20 -20 -20 -20 -20 -20
18 -2 -4 7 10 -4 -1 -0 -3 -20 -20 -20 -20 -20 -20 -20 -20 -20 -20 -20 -20 -20 0 -15 -20 -20 -20 -20 -20 -20 -20 -20 -20 -20 -20 -20 -20 -20 -20 -20 -20 -20 -20
26 -19 -20 -6 2 10 -0 -13 -20 -20 -20 -20 -20 -20 -19 -10 -20 -8 -4 -20 -20 -20 -20 -20 -20 -20 -20 -20 -20 -20 -20 -20 -20 -20 -20 -20 -20 -20 -20 -20 -20 -20 -20
31 36 14 -12 7 13 4 -20 -20 -20 -20 -20 -20 -20 -3 14 10 5 -20 -20 -20 -20 -20 -20 -20 -20 -20 -20 -20 -20 -20 -20 -20 -20 -20 -20 -20 -11 -20 -20 -20 -20 -20
35 51 40 33 29 -6 5 27 8 -11 -14 4 -20 -20 7 12 6 -20 -17 6 8 -7 -20 -20 -20 -20 -20 -20 -20 -20 -20 -20 -20 -20 -20 -20 -19 4 -20 -20 -20 -20 -20
17 36 34 28 14 -20 19 25 12 11 11 -7 -18 -1 15 8 5 5 5 16 -5 -20 -20 -20 -20 -20 -20 -20 -20 -20 -20 -20 -20 -20 -20 -20 -20 2 -20 -20 -20 -20 -20
-1 7 20 29 26 21 27 32 24 27 25 3 2 24 11 -11 -3 -6 5 -6 -20 -20 -20 -20 -20 -20 -20 -20 -20 -20 -20 -20 -20 -20 -20 -20 -20 -20 -4 -20 -20 -20 -20
-11 -5 19 31 18 37 40 34 31 34 13 -5 13 20 19 -16 -19 -20 -16 -20 -20 -20 -20 -20 -20 -20 -20 -20 -20 -20 -20 -20 -20 -20 -20 -20 -20 -20 -3 -20 -20 -20 -20
30 28 24 23 8 25 22 -8 -2 21 -19 18 18 31 28 14 4 -5 -20 -20 -20 -20 -20 -20 -20 -20 -20 -20 -20 -20 -20 -20 -20 -20 -20 -20 -20 -20 9 -19 -20 -20 -20
16 25 25 21 15 11 33 13 25 12 17 28 15 5 6 12 7 9 -7 -20 -20 -20 -20 -20 -20 -20 -20 -20 -20 -20 -20 -20 -20 -20 -20 -20 -20 -20 -20 -19 -20 -20 -20
27 24 24 32 36 28 32 31 26 20 7 13 24 14 15 17 14 22 -20 -20 -20 -20 -20 -20 -20 -20 -20 -20 -20 -20 -20 -20 -20 -20 -20 -20 -20 -20 -20 -20 -20 -20 -20
26 27 28 29 29 22 37 35 29 33 29 14 9 9 10 6 -13 -20 -20 -20 -14 -20 -20 -20 -20 -20 -20 -20 -20 -20 -20 -20 -20 -20 -20 -20 -20 -20 -20 -20 -20 -20 -20
4 18 20 35 32 34 33 25 11 -1 -18 14 11 12 -3 -20 -20 -20 -20 -20 -20 -20 -20 -20 -20 -20 -20 -20 -20 -20 -20 -20 -20 -20 -20 -20 -20 -20 -20 -20 -20 -20 -20
8 0 34 27 18 12 4 8 2 -0 12 10 6 3 -6 -20 -20 -20 -20 -20 -20 -20 -20 -20 -20 -20 -20 -20 -20 -20 -20 -20 -20 -20 -20 -20 -20 -20 -20 -20 -20 -20 -20
-2 -13 15 10 3 4 -11 -10 -3 15 -4 -18 -7 -20 -20 -20 -20 -20 -20 -20 -20 -20 -20 -20 -20 -20 -20 -20 -20 -20 -20 -20 -20 -20 -20 -20 -20 -20 -20 -20 -20 -20 -20
-20 -20 -20 -4 27 3 -14 -20 -20 -20 -1 5 15 -3 -7 -20 -19 -20 -20 -20 -20 -20 -20 -20 -20 -20 -20 -20 -20 -20 -20 -20 -20 -20 -20 -20 -20 -20 -20 -20 -20 -20 -20
-20 -20 -18 -20 9 5 -20 -20 -20 -20 11 12 16 -16 -20 12 -12 -20 -20 -20 -20 -20 -20 -20 -20 -20 -20 -20 -20 -20 -20 -20 -20 -20 -20 -20 -20 -20 -20 -20 -20 -20 -20
-12 -20 -20 -20 -9 -15 -20 -20 -20 0 5 3 25 -8 -20 -11 -15 -20 -20 -20 -20 -20 -20 -20 -20 -20 -20 -20 -20 -20 -20 -20 -20 -20 -20 -20 -20 -20 -20 -20 -20 -20 -20
-20 -20 -20 -20 -20 -20 -20 -20 -20 1 8 2 4 -18 -20 18 -17 -20 -20 -20 -20 -20 -20 -20 -20 -20 -20 -20 -20 -14 -20 -20 -20 -20 -20 -20 -20 -20 -20 -20 -20 -20 -20
-20 -20 -20 -20 -20 -20 -20 -2 -20 -20 -20 20 -16 -18 -20 1 30 -12 -20 -20 -20 -20 -20 -20 -20 -20 -20 -20 -20 -20 -20 -20 -20 -20 -20 -20 -20 -20 -20 -20 -20 -20 -20
-20 -20 -20 -20 -20 -20 -20 -5 -20 -20 -20 -20 -20 16 17 -20 -3 9 -19 -12 -20 -20 -20 -20 -20 -20 -20 -10 -20 -20 -20 -20 -20 -20 -20 -20 -20 -20 -20 -20 -20 -20 -20

GFSSE_prec_radar_078.txt.gz
Reflectivity
30 14 -20 -20 -20 -20 -20 -12 -20 -20 -20 -20 -20 -20 -20 -20 -20 -20 -20 -20 -20 -19 -0 -20 -20 -20 -20 -20 -20 -20 -20 -20 -20 -20 -20 -20 -20 -20 -20 -20 -20 -20 -20
22 -5 -20 -20 -20 -20 -19 -20 -20 -20 -20 -20 -20 -20 -20 -20 -20 -20 -20 -20 -3 2 -2 -20 -20 -20 -20 -20 -20 -20 -20 -20 -20 -20 -20 -20 -20 -20 -20 -20 -20 -20 -20
25 -11 -20 -20 -20 -6 -5 -20 -20 -4 -20 -20 -20 -20 -20 -20 -20 -20 -20 -20 -1 3 -1 -17 -20 -20 -20 -20 -20 -20 -20 -20 3 -20 -20 -20 -20 -20 -20 -20 -20 -20 -20
38 9 -10 -18 -20 4 -2 -10 -12 -13 -20 -20 -20 -20 -20 -20 -20 -20 -20 -20 -20 4 0 -15 -20 -20 -20 -20 -20 -20 -20 -20 -20 -20 -20 -20 -20 -20 -20 -20 -20 -20 -20
32 10 13 14 -3 10 5 -0 -3 -1 -20 -20 -20 -20 -20 -20 -20 -20 -20 -20 -13 10 4 -20 -20 -20 -20 -20 -20 -20 -20 -20 -20 -20 -20 -20 -20 -20 -20 -20 -20 -20 -20
23 17 14 16 16 26 29 8 -20 -20 -20 -20 -20 -20 -20 -20 -20 -20 -20 -9 5 6 -10 -20 -20 -20 -20 -20 -20 -20 -20 -20 -10 -20 -20 -20 -20 -20 -20 -20 -20 -20 -20
20 -5 -20 9 -3 -20 -20 -20 -20 -20 -20 -20 -20 -20 -20 -20 -20 -20 -20 -20 -20 -20 -20 -20 -20 -20 -20 -20 -20 -20 -20 -20 -20 -20 -20 -20 -20 -20 -20 -20 -20 -20 -20
18 -20 -20 12 -2 4 31 -20 -20 -20 -20 -20 -20 -20 -20 -20 -20 -20 -20 -20 -13 -20 -20 -20 -20 -20 -20 -20 -20 -20 -20 -20 -20 -20 -20 -20 -20 -20 -20 -20 -20 -20 -20
40 37 0 6 19 32 -20 15 1 -20 -20 -20 -20 -20 -20 -20 -20 -20 -20 -5 -12 -20 -20 -20 -20 -20 -20 -20 -20 -20 -20 -20 -20 -20 -20 -20 -20 -20 -20 -20 -20 -20 -20
48 47 41 35 33 13 22 -20 -20 -20 -20 -20 -20 -20 -20 -20 -6 14 4 4 -13 -18 16 -7 -20 -20 -20 -20 -20 -20 -20 -20 -20 -20 -20 -20 -20 -20 -20 -20 -20 -20 -20
42 44 45 44 35 -7 -20 -12 -20 -18 -14 -20 -20 -7 -16 -20 8 12 -16 2 -5 12 3 -20 -20 -20 -20 -20 -20 -20 -20 -20 -20 -20 -20 -20 -4 -3 -20 -20 -20 -20 -20
30 20 28 29 40 29 16 -5 6 -10 -14 -3 -0 7 -8 -9 12 12 13 12 8 -12 -20 -20 -20 -20 -20 -20 -20 -20 -20 -20 -20 -20 -20 -20 -20 -20 -12 -20 -20 -20 -20
-7 4 9 10 6 18 10 29 13 26 27 33 25 35 5 10 4 -15 4 -16 -20 -20 -20 -20 -20 -20 -20 -20 -20 -20 -20 -20 -20 -20 -20 -20 -20 -20 -10 -20 -20 -20 -20
-6 6 12 22 9 2 -4 19 32 34 17 10 26 -8 -14 11 9 12 11 2 -20 -20 -20 -20 -20 -20 -20 -20 -20 -20 -20 -20 -20 -20 -20 -20 -20 -20 -12 -20 -20 -20 -20
26 2 18 30 30 17 30 17 -7 5 3 16 6 -17 -3 -18 -1 15 13 -19 -10 -17 -20 -20 -20 -20 -20 -20 -20 -20 -20 -20 -20 -20 -20 -20 -20 -20 -17 -20 -20 -20 -20
20 9 6 21 7 22 16 5 18 18 20 20 21 -10 -4 10 -0 -17 -20 -20 -20 -20 -20 -20 -20 -20 -20 -20 -20 -20 -20 -20 -20 -20 -20 -20 -20 -20 -20 -20 -20 -20 -20
18 26 20 21 28 24 31 33 14 9 16 28 11 12 14 -2 -18 -14 -20 -20 -20 -20 -20 -20 -20 -20 -20 -20 -20 -20 -20 -20 -20 -20 -20 -20 -20 -20 -20 -20 -20 -20 -20
3 7 10 25 24 19 12 21 31 34 31 2 19 28 33 25 3 -8 -20 -20 -20 -20 -20 -20 -20 -20 -20 -20 -20 -20 -20 -20 -20 -20 -20 -20 -20 -20 -20 -20 -20 -20 -20
11 2 -5 11 26 30 19 17 19 24 25 26 11 18 29 23 -11 -20 -20 -20 -20 -20 -20 -20 -20 -20 -20 -20 -20 -20 -20 -20 -20 -20 -20 -20 -20 -20 -20 -20 -20 -20 -20
12 22 19 13 -9 -15 -18 -20 -20 1 3 23 13 -0 -2 11 -20 24 16 -20 -20 -20 -20 -20 -20 -20 -20 -20 -20 -20 -20 -20 -20 -20 -20 -20 -20 -20 -20 -20 -20 -20 -20
-20 -18 -20 -20 -20 -20 -20 -20 -20 -5 -3 -2 -17 5 -3 -20 -20 -20 21 -20 -20 -20 -20 -20 -20 -20 -20 -20 -20 -20 -20 -20 -20 -20 -20 -20 -20 -20 -20 -20 -20 -20 -20
-11 -16 -20 0 -20 -20 -20 -20 -20 -20 -17 -10 -17 29 34 -20 -10 -18 -20 -20 -20 -20 -20 -20 -20 -20 -20 -20 -20 -20 -20 -20 -20 -20 -20 -20 -20 -20 -20 -20 -20 -20 -20
-7 -17 -20 -20 -20 -20 -20 -11 -20 -20 4 9 26 32 -20 6 17 30 0 -20 -20 -20 -20 -20 -20 -20 -20 -20 -20 -20 -20 -20 -20 -20 -20 -20 -20 -20 -20 -20 -20 -20 -20
-20 -2 -18 -20 -7 -20 -19 -20 -20 -20 -20 -20 -20 -20 -20 -15 -20 -20 -19 -17 -20 -20 -20 -20 -20 -20 -20 -20 -20 -20 -20 -20 -20 -20 -20 -20 -20 -20 -20 -20 -20 -20 -20
-20 -20 -19 -20 -20 -20 -20 -2 -20 -20 -20 -20 -20 -20 -20 -20 18 -20 20 18 6 -17 -20 -20 -20 -20 -20 -20 -20 -20 -20 -20 -20 -20 -20 -20 -20 -20 -20 -20 -20 -20 -20
-20 -20 -20 -20 -20 -20 -20 -20 -20 -20 -20 -20 -20 -20 -20 -20 -20 17 -20 -20 -20 -20 -20 -20 -20 -20 -20 -20 -20 -20 -20 -20 -20 -20 -20 -20 -20 -20 -20 -20 -20 -20 -20

GFSSE_prec_radar_081.txt.gz
Reflectivity
20 22 19 -11 -18 -20 -20 -20 -20 -20 -20 -20 -20 -20 -20 -20 -20 -20 -20 -20 2 2 -20 -20 -20 -20 -20 -20 -20 -20 -20 -20 -20 -20 -20 -20 -20 -17 -11 -20 -20 -20 -20
13 18 12 22 -20 -20 -20 -20 -20 -20 -20 -20 -20 -20 -20 -20 -20 -20 -20 -11 -8 -20 -20 -20 -20 -20 -20 -20 -20 -20 -20 -20 -20 -20 -20 -20 -20 -20 -20 -20 -20 -20 -19
-10 -11 35 12 11 -20 -17 -20 -20 -20 -20 -20 -20 -20 -19 -20 -20 -20 4 2 -8 -20 -20 -20 -20 -20 -20 -20 -20 -20 -20 6 -20 -20 -20 -20 -20 -20 -20 -20 -20 -20 -20
2 28 43 31 10 5 -1 -6 -8 -20 -20 -20 -20 -20 -17 -20 -20 -17 3 1 -20 -20 -20 -20 -20 -20 -20 -20 -20 -20 -20 -20 -20 -20 -20 -20 -20 -20 -20 -20 -20 -20 -20
2 19 37 37 -14 7 2 -20 -20 -20 -20 -20 -20 -20 -20 -20 -20 5 -5 -20 -20 -20 -20 -20 -20 -20 -20 -20 -20 -20 -20 -20 -20 -20 -20 -20 -20 -20 -20 -20 -20 -20 -20
21 34 34 38 2 1 -20 -20 -20 -20 2 4 -19 -20 -20 -20 -20 -19 9 -20 -20 -19 -20 -20 -20 -20 -20 -20 -20 -20 -20 -20 -20 -20 -20 -20 -20 -20 -20 -20 -20 -20 -20
12 25 47 34 22 9 -19 -18 -17 -20 -20 -20 -20 -20 -20 -20 -20 -20 -20 -20 -20 -20 -20 -20 -20 -20 -20 -20 -20 -20 -20 -20 -20 -20 -20 -20 -20 -20 -20 -20 -20 -20 -20
22 34 49 45 32 9 17 -20 -20 -20 -20 -20 -20 -20 -20 -20 -20 -20 -20 -20 -20 -20 -20 -20 -20 -20 -20 -20 -20 -20 -20 -20 -20 -20 -20 -20 -20 -20 -20 -20 -20 -20 -20
42 40 44 33 38 13 -13 -20 -20 -20 -20 -20 -20 -20 -20 -20 -20 -20 -20 -20 -20 -20 -20 -20 -20 -20 -20 -20 -20 -20 -20 -20 -20 -20 -20 -20 -20 -20 -20 -20 -20 -20 -20
36 49 43 49 31 10 30 -11 -20 -20 -20 -20 -20 -20 -20 -20 -20 -20 -20 -2 8 -19 -3 3 -8 -8 -20 -20 -20 -20 -20 -20 -20 -20 -20 -20 -20 -20 -20 -20 -20 -20 -20
10 23 44 48 46 27 16 8 -3 -20 -20 -20 -20 -20 -20 -20 1 -15 -20 -3 9 1 -5 5 13 -13 -20 -20 -20 -20 -20 -20 -20 -20 -20 -20 -20 -20 -20 -20 -20 -20 -20
4 20 42 39 44 45 31 28 -14 -20 -20 -20 -20 -6 -5 23 11 9 -20 7 7 -12 -13 -8 -16 -20 -20 -20 -20 -20 -20 -20 -20 -20 -20 -20 -20 -18 -20 -20 -20 -20 -20
7 8 23 35 39 42 36 22 -20 -20 -10 4 -9 10 14 5 31 1 2 -20 -19 12 2 -15 -19 -20 -20 -20 -20 -20 -20 -20 -20 -20 -20 -20 -20 -12 5 -20 -20 -20 -20
-15 1 9 19 21 18 3 -4 -9 12 35 29 6 32 6 -9 16 -1 -17 -20 -20 4 -20 -20 -20 -20 -20 -20 -20 -20 -20 -20 -20 -20 -20 -20 -20 -20 9 -16 -20 -20 -20
-4 -6 3 10 13 8 -10 -20 -2 17 1 21 -13 10 9 6 9 6 -20 -20 -20 -20 -20 -20 -20 -20 -20 -20 -20 -20 -20 -20 -20 -20 -20 -20 -20 -20 -7 -18 -20 -20 -20
13 -16 -20 11 24 14 0 -4 25 24 9 9 -11 15 -14 -12 -10 -20 -20 -20 -20 -20 -20 -20 -20 -20 -20 -20 -20 -20 -20 -20 -20 -20 -20 -20 -20 -20 -20 -20 -20 -20 -20
12 3 -8 7 3 19 -7 23 2 20 34 9 1 -1 8 -19 -20 -20 -20 -20 -20 -20 -20 -20 -20 -20 -20 -20 -20 -20 -20 -20 -20 -20 -20 -20 -20 -20 -20 -20 -20 -20 -20
4 8 13 -17 -3 -20 -17 2 16 13 15 15 20 27 26 -20 -17 -0 -20 -20 -20 -20 -20 -20 -20 -20 -20 -20 -20 -20 -20 -20 -20 -20 -20 -20 -20 -20 -20 -20 -20 -20 -20
5 19 14 -4 6 20 28 28 34 23 24 20 20 5 -20 -1 -17 -20 -20 -12 -20 -20 -20 -20 -20 -20 -20 -20 -20 -20 -20 -20 -20 -20 -20 -20 -20 -20 -20 -20 -20 -20 -20
19 -0 3 -16 6 15 13 18 3 11 15 -17 -20 -20 6 -18 -20 -20 -11 -20 7 -20 -20 -20 -20 -20 -20 -20 -20 -20 -20 -20 -20 -20 -20 -20 -20 -20 -20 -20 -20 -20 -20
-13 -20 -20 -20 -20 -20 -20 -20 -19 -20 -20 -16 3 16 18 14 5 30 -1 18 -20 -20 -20 -20 -20 -20 -20 -20 -20 -20 -20 -20 -20 -20 -20 -20 -20 -20 -20 -20 -20 -20 -20
-20 -20 -20 -20 -20 -20 -20 -20 -20 -20 -20 -20 -20 -20 -20 -18 -17 27 -20 -20 -20 -20 -20 -20 -20 -20 -20 -20 -20 -20 -20 -20 -20 -20 -20 -20 -20 -20 -20 -20 -20 -20 -20
-20 -20 -20 -20 -20 -20 -20 -20 -20 -20 -20 -20 -20 -20 -20 -9 25 18 8 -17 -20 -20 -20 -20 -20 -20 -20 -20 -20 -20 -20 -20 -20 -20 -20 -20 -20 -20 -20 -20 -20 -20 -20
-20 -20 -20 -20 -20 -20 -20 -20 -20 -20 -20 -20 -20 -20 -20 -20 -20 -20 -20 -20 -20 -20 -20 -20 -20 -20 -20 -20 -20 -20 -20 -20 -20 -20 -20 -20 -20 -20 -20 -20 -20 -20 -20
-20 -20 -20 -20 -20 -20 -20 -20 -20 -20 -20 -20 -20 -20 -20 -17 -17 -20 -20 -20 -13 -20 -20 -20 -20 -20 -20 -20 -20 -20 -20 -20 -20 -20 -20 -20 -20 -20 -20 -20 -20 -20 -20
-20 -20 -20 -20 -20 -19 -20 -20 -20 -20 -20 -20 -20 -20 -20 -20 -20 -20 -20 -20 -18 -20 -20 -20 2 -16 -19 -20 -20 -20 -20 -20 -20 -20 -20 -20 -20 -20 -19 -15 -20 -20 -20

GFSSE_prec_radar_084.txt.gz
Reflectivity
9 5 3 14 31 6 5 26 15 -18 -20 -20 -20 -20 -20 -20 -20 -20 -20 -20 -20 -20 -20 -20 -20 -20 -20 -20 -20 -20 -20 -20 -20 -20 -20 -20 -20 -20 -20 -20 -20 -20 -20
-20 -20 -20 1 9 -17 -20 -1 -17 -20 -20 -20 -20 -20 -20 -20 -20 -20 -20 -20 -20 -20 -20 -20 -20 -20 -20 -20 -20 -20 -20 -20 -20 -20 -20 -20 -20 -20 -20 -20 -20 -20 -20
-20 -9 -4 4 11 -15 -20 -17 -20 -4 -20 -20 -20 -20 -20 -20 -20 -20 -20 -20 -15 -20 -20 -20 -20 -20 -20 -20 -20 -20 -20 -20 -20 -20 -20 -20 -20 -20 -20 -20 -20 0 -5
-20 -17 29 27 27 13 -20 -20 -20 -20 -20 -20 -20 -20 -20 -20 -20 -14 2 8 4 -14 -20 -20 -20 -20 -20 -20 -20 -20 -20 -20 -20 -20 -20 -20 -20 -20 -20 -20 -20 -17 12
-20 -18 -12 7 42 37 -1 -20 -20 -4 -20 -20 -20 -20 -20 -20 -20 -20 -20 -20 -20 -20 -20 -20 -20 -20 -20 -20 -20 -20 -20 -20 -20 -20 -20 -20 -20 -20 -20 -20 -20 -15 -19
-20 -20 -10 11 23 44 27 -6 -11 7 -20 -20 -20 -20 -20 -20 -12 -16 -20 -20 -20 -20 -20 -20 -20 -20 -20 -20 -20 -20 -20 -20 -20 -20 -20 -20 -20 -20 -20 -20 -20 -20 -20
-20 -20 -20 -8 15 18 36 7 -2 -2 -20 -20 -20 -20 -17 3 -19 -20 -20 -20 -20 -20 -20 -20 -20 -20 -20 -20 -20 -20 -20 -20 -20 -20 -20 -20 -20 -20 -20 -20 -20 -20 -20
-20 -20 -20 -15 35 33 41 2 -0 -3 -20 -20 -20 -20 -14 -2 -9 -20 -20 -20 -20 -20 -20 -20 -20 -20 -20 -20 -20 -20 -20 -20 -20 -20 -20 -20 -20 -20 -20 -20 -20 -20 -20
-16 -5 2 10 24 44 44 13 2 -1 -20 -20 -20 -20 -20 -7 9 -20 -20 -20 -20 -20 -20 -20 -20 -20 -20 -20 -4 -4 -20 -20 -20 -20 -20 -20 -20 -20 -20 -20 -20 -20 -20
31 32 15 27 32 41 42 27 31 -18 -20 -20 -20 -20 -20 -20 -20 -20 -20 -20 -20 -20 -1 10 -6 4 -19 -19 -5 -20 -20 -20 -20 -20 -20 -20 -20 -20 -20 -20 -20 -20 -20
0 11 14 42 40 47 46 24 37 28 -20 -20 -20 -20 -20 -20 -20 -20 -20 -20 -20 -20 -5 6 -9 -20 -14 4 -19 -20 -20 -20 -20 -20 -20 -20 -20 -20 -20 -20 -20 -20 -20
3 1 20 33 40 46 40 39 26 10 -9 -16 -20 -20 -20 -20 -20 -18 4 12 -1 -20 -20 2 -20 -20 -20 -20 -20 -20 -20 -20 -20 -20 -20 -20 -20 -20 -20 -20 -20 -20 -20
-8 1 20 38 48 42 41 36 28 4 -14 -11 -20 -20 -20 -1 20 10 25 9 -17 -20 -19 -5 -18 -20 -20 -20 -20 -20 -20 -20 -20 -20 -20 -20 -20 4 11 -20 -20 -20 -20
-14 1 13 18 30 42 44 36 16 -19 -4 -20 -20 25 -20 10 17 -19 2 -9 -20 -20 -20 -9 -20 -20 -20 -20 -20 -20 -20 -20 -20 -20 -20 -20 -20 10 18 -16 -20 -20 -20
-20 -18 4 5 16 28 22 32 30 -20 -12 5 2 3 -6 13 0 7 -10 -6 -20 -20 -20 -20 -20 -20 -20 -20 -20 -20 -20 -20 -20 -20 -20 -20 -20 -20 -4 -20 -20 -20 -20
14 -16 -11 -1 5 15 10 3 -3 0 -20 -8 -1 -20 -20 -8 -7 -20 -6 -20 -20 -20 -20 -20 -20 -20 -20 -20 -20 -20 -20 -20 -20 -20 -20 -20 -20 -20 -20 -20 -20 -20 -20
23 -10 -14 -4 -3 -19 20 23 10 5 22 32 2 -14 -20 2 -20 -20 -10 -20 -20 -20 -20 -20 -20 -20 -20 -20 -20 -20 -20 -20 -20 -20 -20 -20 -20 -20 -20 -20 -20 -20 -20
21 16 -3 0 18 -0 23 28 -9 16 -4 24 19 18 -20 2 -20 -20 -20 -20 -20 -20 -20 -20 -20 -20 -20 -20 -20 -20 -20 -20 -20 -20 -20 -20 -20 -20 -20 -20 -20 -20 -20
9 17 25 21 -9 14 -10 -17 -2 -2 8 6 14 27 12 -20 -20 -20 -20 -20 -20 -20 -20 -20 -20 -20 -20 -20 -20 -20 -20 -20 -20 -20 -20 -20 -20 -20 -20 -20 -20 -20 -20
-1 -15 13 33 -11 -2 -3 9 13 28 28 24 15 6 -15 16 -12 18 -20 -20 -20 -20 -20 -20 -20 -20 -20 -20 -20 -20 -20 -20 -20 -20 -20 -20 -20 -20 -20 -20 -20 -20 -20
5 -3 9 16 12 23 12 11 20 22 2 -20 -20 12 5 -20 -20 -20 -20 -20 -20 -20 -20 -20 -20 -20 -20 -20 -20 -20 -20 -20 -20 -20 -20 -20 -20 -20 -20 -20 -20 -20 -20
-20 -20 -20 -19 -20 -20 -20 -20 -20 -20 -20 -20 -20 -10 -20 -20 -20 -20 -10 -20 -14 -20 -20 -20 -20 -20 -20 -20 -20 -20 -20 -20 -20 -20 -20 -20 -20 -20 -20 -20 -20 -20 -20
-20 -20 -20 -20 -20 -20 -20 -20 -20 -20 -20 -20 -20 -20 -20 -20 -20 -20 -20 -20 -20 -20 -20 -20 -20 -20 -20 -20 -20 -20 -20 -20 -20 -20 -20 -20 -20 -20 -20 -20 -20 -20 -20
-20 -20 -20 -20 -20 -20 -20 -20 -20 -20 -20 -20 -20 -20 -20 -20 -20 22 -4 -20 -20 -20 -20 -20 -20 -20 -20 -20 -20 -20 -20 -20 -20 -20 -20 -20 -20 -20 -20 -20 -20 -20 -20
-20 -20 -20 -20 -20 -20 -20 -20 -20 -20 -20 -20 -20 -20 -20 -20 -20 -20 -20 -20 -20 -20 -18 -20 -20 -20 -20 -20 -20 -20 -20 -20 -20 -20 -20 -20 -20 -20 -20 -20 -20 -20 -20
-20 -20 -20 -20 -20 -20 -20 -20 -20 -20 -20 -20 -20 -20 -20 -20 -20 -20 -20 -20 -20 -20 24 16 -20 -20 -18 -17 -18 -20 -18 -20 -15 -20 -20 -20 -20 -20 -20 -20 -20 -20 -20

GFSSE_prec_radar_087.txt.gz
Reflectivity
-16 -4 15 24 -20 -20 -14 23 20 29 -4 -20 -20 -20 -20 -20 -20 -20 -20 -20 -20 -20 -4 -20 -20 -14 -19 -20 -20 -20 -20 -20 -20 -20 -20 -20 -20 -20 -20 -20 -20 -20 -20
-12 -20 -20 -20 -20 -16 -3 -20 -18 -3 8 -20 -20 -20 -20 -20 -20 -20 -20 -20 -20 -20 -20 -20 -20 -20 -20 -20 -20 -20 -20 -20 -20 -20 -20 -20 -20 -20 -20 -20 0 8 13
10 -14 -20 -20 -19 1 -6 2 -19 -19 29 -20 -20 -20 -20 -20 -20 -20 -20 -20 -20 -20 -20 -20 -20 -4 -20 -20 -20 -20 -20 -20 -20 -20 -20 -20 -20 -20 -20 -19 18 1 7
-16 -6 -20 -20 -20 1 2 -20 -20 -20 -2 -17 -20 -20 -6 -20 -20 -20 -20 -20 -20 -20 -20 -20 -9 -9 -20 -20 -20 -20 -20 -20 -20 -20 -20 -20 -20 -20 -20 -5 -6 9 7
11 -14 -4 -20 -20 -20 -1 13 0 -20 -20 7 -20 -20 -20 -20 -20 -20 -20 -20 -20 -7 -16 8 1 -18 -20 -20 -20 -20 -20 -20 -20 -20 -20 -20 -20 -20 -20 -20 -14 2 -2
-18 -8 -20 -20 -20 22 13 31 28 3 -20 -2 -20 -20 -16 -3 -20 -20 -20 -20 -20 -20 -20 -20 -20 -20 -20 -20 -20 -20 -20 -20 -20 -20 -20 -20 -20 -20 -20 -20 -20 -20 -20
5 16 -6 18 -2 29 22 24 36 24 -14 17 -18 -20 6 -11 -20 -20 -20 -20 -20 -20 -20 -20 -20 -20 -20 -20 -20 -20 -20 -20 -20 -20 -20 -20 -20 -20 -20 -20 -20 -20 -20
-20 -20 -16 26 -1 -16 -12 14 32 33 17 -7 23 -17 -4 -20 -20 -20 -18 -19 -20 -20 -20 -20 -20 -20 -20 -20 -20 -20 -20 -20 -20 -20 -20 -20 -20 -20 -20 -20 -20 -20 -20
-20 -20 -20 -2 -20 -18 -20 6 16 38 27 31 -6 4 -9 -20 -20 -20 -9 -8 -20 -20 -20 -20 -20 -20 -20 -20 -20 -20 -20 -20 -20 -20 -20 -20 -20 -20 -20 -20 -20 -20 -20
1 -19 -20 -20 5 -19 36 27 10 43 32 20 1 7 10 -20 -20 -20 -20 -20 -20 -20 -20 -20 -20 16 9 -4 -1 -20 -20 -20 -20 -20 -20 -20 -20 -20 -20 -20 -20 -20 -20
10 19 -2 10 -19 26 23 27 41 34 35 24 -3 -20 -10 -2 -19 -20 -20 -20 -20 -20 -20 -20 -20 -20 -12 -17 -20 -19 -16 -20 -20 -20 -20 -20 -20 -20 -20 -20 -20 -20 -20
24 -15 -19 29 38 31 32 31 26 41 40 22 5 10 -3 -10 -20 -20 -20 -20 -20 -20 -20 -20 -20 -20 -20 -20 -20 -20 -20 -20 -20 -20 -20 -20 -20 -20 -20 -20 -20 -20 -20
-3 -0 -10 32 30 20 6 17 12 41 41 15 1 1 -15 -20 -20 -20 -20 -20 -15 21 -16 -20 -20 -20 -20 -20 -20 -20 -20 -20 -20 -20 -20 -20 -20 -11 -20 -20 -20 -20 -20
-14 -15 9 -2 41 36 28 18 27 38 34 8 13 5 -2 -18 -5 -19 18 -20 -17 -14 -20 -20 -20 -20 -20 -20 -20 -20 -20 -20 -20 -20 -20 -20 -20 3 -13 -20 -20 -20 -20
-20 -6 3 -15 24 41 38 32 29 38 20 27 4 -20 -20 -20 -12 7 8 -14 -14 -11 -20 -20 -20 -20 -20 -20 -20 -20 -20 -20 -20 -20 -20 -20 -20 -20 -20 -20 -20 -20 -20
-20 -6 -8 -2 8 27 38 37 38 36 28 5 15 -2 8 -16 7 3 -11 -15 1 -20 -20 -20 -20 -20 -20 -20 -20 -20 -20 -20 -20 -20 -20 -20 -20 -20 -20 -20 -20 -20 -20
20 -20 -8 -13 0 10 22 32 37 -4 2 -3 -13 11 26 -16 -10 -20 -6 -14 -10 -20 -20 -20 -20 -20 -20 -20 -20 -20 -20 -20 -20 -20 -20 -20 -20 -20 -20 -20 -20 -20 -20
26 -20 -9 -20 -3 0 -10 8 13 8 13 14 11 19 4 7 -4 -18 -20 -19 -19 -20 -20 -20 -20 -20 -20 -20 -20 -20 -20 -20 -20 -20 -20 -20 -20 -20 -20 -20 -20 -20 -20
-9 8 11 -20 23 -6 25 9 26 -3 10 17 16 30 23 -1 9 -20 -20 -20 -20 -20 -20 -20 -20 -20 -20 -20 -20 -20 -20 -20 -20 -20 -20 -20 -20 -20 -20 -20 -20 -20 -20
30 -6 24 15 11 17 -7 28 26 3 -19 20 12 25 16 0 17 -20 -20 -20 -20 -20 -20 -20 -20 -20 -20 -20 -20 -20 -20 -20 -20 -20 -20 -20 -20 -20 -20 -20 -20 -20 -20
6 -3 26 23 25 19 15 16 4 -6 20 29 15 21 11 15 -18 -20 -20 -20 -20 -20 -20 -20 -20 -20 -20 -20 -20 -20 -20 -20 -20 -20 -20 -20 -20 -20 -20 -20 -20 -20 -20
-17 15 9 9 23 -6 26 12 5 9 3 24 13 12 6 -2 -20 -20 -20 -20 -20 -20 -20 -7 -20 -20 -20 -20 -20 -20 -20 -20 -20 -20 -20 -20 -20 -20 -20 -20 -20 -20 -20
-7 -15 -20 -9 7 -5 8 13 9 8 14 -10 -2 -10 -20 -13 -20 -20 -20 -20 -20 -20 -12 -20 -20 -20 -20 -20 -20 -20 -20 -20 -20 -20 -20 -20 -20 -20 -20 -20 -20 -20 -20
-18 -20 -20 -20 -20 -20 -20 -20 -19 -16 -20 -20 -20 -20 -20 -20 -20 -10 4 -20 16 1 -20 -20 -20 -20 -20 -20 -20 -20 -20 -20 -20 -20 -20 -20 -20 -20 -20 -20 -20 -20 -20
-19 -20 -20 -20 -20 -20 -20 -20 -20 -20 -20 -20 -20 -20 -20 -20 -20 -20 -1 -16 -20 -20 -20 -20 -20 -20 -20 -17 -11 -20 -19 -20 -20 -20 -20 -20 -20 -20 -20 -20 -20 -20 -20
-20 -20 -20 -20 -20 -20 -20 -20 -20 -20 -20 -20 -20 -20 -20 -20 -20 -20 -20 -20 -20 -20 -20 -20 -9 -3 5 -15 -20 -11 16 17 0 -1 -19 11 14 -20 -20 -20 -20 -20 -20

GFSSE_prec_radar_093.txt.gz
Reflectivity
-20 -20 -20 -20 -20 26 -20 -11 4 -20 10 11 -17 -12 1 -14 -7 -20 -20 -20 -20 -2 -20 -20 -15 -20 -20 -4 -7 -18 -20 -20 -20 -20 -20 -20 -4 -20 -20 -20 -20 -20 -20
-20 -20 -20 -20 -20 -18 -20 -3 -20 -19 -17 -19 -7 3 12 19 15 -20 -20 -20 -20 -20 -14 -20 -20 -20 -20 -18 -18 -19 -20 -20 -20 -20 -1 11 12 12 8 -20 -15 10 4
-20 -19 -20 -20 -20 -3 1 -5 -20 -20 -20 -20 -14 -8 -20 9 17 -11 -20 -20 -20 -20 -20 -20 -20 -20 -20 -20 -20 -20 -20 -20 -20 -20 -20 -20 -19 -6 -15 4 -16 11 11
-20 -12 -20 -20 -20 -20 -7 2 -14 -20 -20 -20 -15 0 -20 -20 -20 -2 0 -20 -20 -20 -20 -20 -20 -20 -20 -20 -20 -20 -20 -20 -20 -20 -20 -20 -20 9 8 -3 4 10 6
6 -3 -20 -20 -20 -14 -19 -3 -20 -20 -20 -20 -20 2 -20 -20 -20 -20 -20 -20 -20 -20 -20 -20 -20 -20 -20 -20 -20 -20 -20 -20 -20 -20 -20 -20 -12 10 12 8 10 2 -20
9 9 -11 -20 -20 -20 0 3 -20 -20 -20 -20 -5 20 -20 -20 -20 -20 -20 -20 -2 -20 -2 -19 -20 -20 -20 -20 -20 -20 -20 -20 -20 -20 -20 -20 -20 -20 -20 -20 -20 -20 -20
-20 32 44 37 -17 -15 -20 -20 -20 -20 -20 -20 -7 7 -13 -20 -20 -20 -20 -10 -1 9 5 -20 -20 -20 -20 -20 -20 -20 -20 -20 -20 -20 -20 -20 -20 -20 -20 -20 -20 -20 -20
-20 8 46 40 14 26 17 -19 -20 -20 -20 -16 -10 20 13 2 -19 -20 -20 -20 -7 -20 -20 -20 -20 -20 -20 -20 -20 -20 -20 -20 -20 -20 -20 -20 -20 -20 -20 -20 -20 -20 -20
-20 -14 31 46 38 25 32 39 18 -20 -20 -18 -14 -7 11 -20 -20 -20 -20 -20 -20 -20 -20 -20 -20 -20 -20 -20 -20 -20 -20 -20 -20 -20 -20 -20 -20 -20 -20 -20 -20 -20 -20
-4 11 16 34 37 18 33 34 37 6 7 -18 -20 -20 4 -11 -20 -18 -20 -20 -20 -20 -20 -20 -20 -20 -20 -20 -20 -20 -20 -20 -20 -20 -20 -20 -20 -20 -20 -20 -20 -20 -20
-14 4 30 17 3 10 -3 29 22 32 8 17 -1 -20 -20 -5 -20 -20 -20 -20 -20 -20 -20 -20 -20 -20 -20 -20 -20 -20 -20 -20 -20 -20 -20 -17 -20 -20 -20 -20 -20 -20 -20
-20 -20 -20 -17 -18 1 10 25 26 31 13 4 -20 -20 5 9 -17 -17 -20 -20 -20 -20 -20 -20 -20 -20 -20 -20 -20 -20 -20 -20 -20 -20 -20 -20 -20 -20 -20 -20 -20 -20 -20
-20 -20 -20 -8 -20 -13 21 36 29 29 25 10 -15 -20 -9 9 -9 -19 -20 -20 -20 -20 -14 -20 -20 -20 -20 -20 -20 -20 -20 -20 -20 -20 -20 -20 -20 -20 -20 -20 -20 -20 -20
-17 -20 -16 -16 17 11 -12 30 40 39 34 13 24 -18 20 12 -5 -19 -20 -20 -20 -20 -20 -20 -20 -20 -20 -20 -20 -20 -20 -20 -20 -20 -20 -20 -20 -20 -20 -20 -20 -20 -20
-11 0 -20 5 8 21 16 10 27 33 34 36 11 21 1 6 -2 -20 -20 -20 -20 -20 -20 -14 -20 -20 -20 -20 -20 -20 -20 -20 -20 -20 -20 -20 -20 -20 -20 -20 -20 -20 -20
-7 -8 -20 -18 3 21 28 23 29 7 4 28 25 28 16 10 -20 -20 -20 -20 -20 -18 -20 -10 -19 -20 -20 -20 -20 -20 -20 -20 -20 -20 -20 -20 -20 -20 -20 -20 -20 -20 -20
-11 11 -5 -20 -13 -3 12 12 29 23 28 21 30 10 31 -19 -20 -20 -20 -20 -20 -20 -15 -18 -20 -20 -20 -20 -20 -20 -20 -20 -20 -20 -20 -20 -20 -20 -20 -20 -20 -20 -20
-20 -20 -20 -20 -20 23 27 35 28 25 31 24 15 30 23 -20 -18 -20 -20 -20 -20 -20 -20 -20 -20 -20 -20 -20 -20 -20 -20 -20 -20 -20 -20 -20 -20 -20 -20 -20 -20 -20 -20
-20 -4 1 -15 -6 29 35 31 35 32 34 8 31 33 24 -16 -20 -20 -20 -20 -20 -20 -20 -20 -18 -20 -20 -20 -20 -20 -20 -20 -20 -20 -20 -19 -20 -20 -20 -20 -20 -20 -20
-20 -18 -20 1 -19 11 27 28 31 34 32 33 29 27 26 -7 -17 -19 -20 -20 -20 -20 -20 -20 -20 -20 -20 -20 -20 -20 -20 -20 -20 -18 -16 -20 -20 -20 -20 -20 -20 -20 -20
-20 -20 -1 19 17 15 20 26 28 24 25 23 26 26 24 25 7 8 2 -18 -20 -20 -9 -14 -20 -20 -20 -20 -20 -20 -20 -20 -20 -20 -20 -20 -20 -20 -20 -20 -20 -20 -20
-20 -20 -20 -20 3 5 19 26 19 12 -10 6 11 22 26 18 19 9 -14 -3 -10 -18 -20 -20 -20 -20 -1 -0 -20 -20 -20 -20 -20 -20 -20 -20 -20 -20 -20 -20 -20 -20 -20
-17 -20 -20 -20 -19 2 21 -6 26 23 18 9 6 1 3 0 24 12 28 8 12 4 4 1 -20 -6 -20 5 -20 -20 -20 -20 -20 -20 -20 -20 -20 -20 -20 -20 -20 -20 -20
-20 -20 -20 -20 -16 19 -7 13 -4 -5 28 28 16 -20 -14 -20 -18 7 10 -4 -16 3 14 -11 -20 -20 -20 -20 9 -20 -20 -20 -20 -20 -20 -19 -11 -17 -20 -20 -20 -20 -20
-20 -20 -20 -20 -19 -19 -20 9 10 1 1 -1 4 -9 -12 -19 -19 -9 11 22 -1 -5 -20 -20 -17 -20 22 -18 20 -14 -20 -14 -20 -20 -20 -20 -20 -20 -7 -3 -3 -19 -20
-20 -20 -20 -20 -15 -2 -7 9 -20 -12 -2 -11 -12 -20 -20 -2 -0 14 12 12 -12 -20 -20 -20 -18 -20 22 26 8 -20 -20 -20 -11 34 34 -2 4 8 -9 -20 2 18 14

GFSSE_prec_radar_096.txt.gz
Reflectivity
-20 -20 -20 -19 -20 -20 -20 -20 -20 -20 -20 -20 -20 -20 -20 -20 -20 -20 -20 -20 -20 0 13 -16 -20 -20 -3 9 -19 -20 -16 -2 -20 -18 -19 -20 -20 -20 -20 -20 -20 -20 -20
-20 -20 -20 -20 -9 -20 -20 -20 -10 19 -19 -20 -20 -20 -20 -20 -20 -20 -20 -20 -20 2 8 -20 5 -19 -5 -8 -20 -20 -20 -20 -19 -17 4 -20 4 -1 -20 -20 -20 -20 -20
-20 -20 -20 -11 -18 -18 -20 -20 -17 3 15 -1 -20 -5 -14 3 -19 -19 -20 -20 -20 -3 -20 -20 -20 -5 -9 -20 -20 -20 -20 -20 -20 -20 -20 -2 11 10 -11 -19 11 9 6
-20 -20 -20 -20 -20 -16 -14 -20 -20 -20 -20 -17 -20 7 9 7 1 12 6 -7 -16 -20 -20 -10 -20 -16 -20 -20 -20 -20 -20 -20 -20 -20 -20 -20 9 8 12 5 -20 -17 -10
-20 -20 -20 -10 -20 8 -3 -20 -20 -10 -12 -13 -20 -20 -16 6 19 17 18 14 -18 -10 -20 -20 -20 -20 -20 -20 -20 -20 -20 -20 -20 -20 -20 -20 -15 -5 -20 -5 -20 -20 -20
-20 -5 -20 4 -11 7 10 2 -20 1 -20 -16 -20 -20 20 -14 -15 -13 -14 5 3 -2 -12 -20 -20 -20 -20 -20 -20 -20 -20 -20 -20 -20 -20 -20 -20 -15 -20 -20 -20 -20 -20
-20 2 5 39 38 23 14 5 -2 -20 -3 -20 -20 -20 12 -20 -20 -20 -20 -20 -20 -20 -20 -20 -20 -20 -20 -20 -20 -20 -20 -20 -20 -20 -20 -20 -20 -20 -20 -20 -20 -20 -20
-20 -6 -20 32 49 46 37 6 3 1 -13 -20 -20 -20 15 -5 6 -20 -20 -20 -20 -20 -20 -20 -20 -20 -20 -20 -20 -20 -20 -20 -20 -20 -20 -20 -20 -20 -20 -20 -20 -20 -20
-10 -1 -20 8 31 47 38 28 36 7 -19 -20 -20 -20 20 18 -18 -20 -20 -20 -20 -20 -20 -20 -20 -20 -20 -20 -20 -20 -20 -20 -20 -20 -20 -20 -20 -20 -20 -20 -20 -20 -20
5 -13 -8 17 42 29 42 38 31 37 2 -20 -20 -20 10 19 -15 -13 -20 -20 -20 -20 -20 -20 -20 -20 -20 -20 -20 -20 -20 -20 -20 -20 -20 -20 -19 -20 -20 -20 -20 -20 -20
0 -7 7 8 20 39 29 10 14 40 36 -10 -20 -6 1 16 -4 -18 -20 -20 -20 -20 -20 -20 -20 -20 -20 -20 -20 -20 -20 -20 -20 -20 -20 -20 -20 -20 -20 -20 -20 -20 -20
-3 -1 -0 -4 -5 25 19 -8 0 35 33 11 -13 9 -18 -1 6 1 -20 -20 -20 -20 -20 -20 -20 -20 -20 -20 -20 -20 -20 -20 -20 -20 -20 -7 -20 -20 -20 -20 -20 -20 -20
-17 21 -20 6 -11 7 -3 -1 -9 22 27 30 -2 -2 -15 -1 -3 -20 -20 -20 -18 -20 -20 -20 -20 -20 -20 -20 -20 -20 -20 -20 -20 -20 -20 -20 -20 -20 -20 -20 -20 -20 -20
-7 17 24 -19 15 10 1 -2 10 29 26 27 2 -11 19 12 6 -20 -20 -20 -20 -20 -20 -20 -20 -20 -20 -20 -20 -20 -20 -20 -20 -20 -20 -20 -20 -20 -20 -20 -20 -20 -20
8 -3 27 24 27 8 25 26 27 29 31 27 29 28 20 -20 -20 -14 13 -20 -20 -20 -20 -20 -20 -20 -20 -20 -20 -20 -20 -20 -20 -20 -20 -20 -20 -20 -20 -20 -20 -20 -20
-20 -10 17 9 9 13 10 -19 8 11 11 36 30 15 7 -6 -0 21 16 -20 -20 -20 -20 -20 -20 -20 -20 -20 -20 -20 -20 -20 -20 -20 -20 -20 -20 -15 -20 -20 -20 -20 -20
-20 -20 2 8 9 4 1 5 13 22 34 19 32 15 29 6 27 24 19 -14 -20 -20 -20 -20 -20 -20 -20 -20 -20 -20 -20 -20 -20 -20 -20 -20 -20 -20 -20 -20 -20 -20 -20
-10 -19 -2 -20 -9 3 -1 25 21 23 17 29 27 24 21 19 29 22 16 -19 -20 -20 -20 -20 -20 -20 -20 -20 -20 -20 -20 -20 -20 -20 -20 -20 -20 -20 -20 -20 -20 -20 -20
6 -15 22 8 3 -7 21 23 19 22 24 11 24 26 16 30 27 24 10 -20 -20 -20 -20 -20 -20 -20 -20 -20 -20 -20 -20 -20 -20 -20 -20 -20 -20 -20 -20 -20 -20 -20 -20
0 8 17 -2 -10 -5 12 23 33 34 31 23 17 23 28 31 31 25 -18 -1 -1 -20 -20 -20 -20 -20 -20 -20 -20 -20 -20 -20 -20 -20 -20 -20 -20 -20 -20 -20 -20 -20 -20
0 -2 -3 -20 -3 -6 -0 26 35 34 32 26 23 35 31 33 26 9 22 0 -20 -20 -20 -20 -20 -20 -20 -20 -20 -20 -20 -20 -20 -20 -20 -20 -20 -20 -20 -20 -20 -20 -20
2 2 -16 -16 -1 -14 -4 23 31 31 31 29 31 34 31 25 22 20 7 10 -13 -16 -20 -20 -20 -20 -20 -20 15 -20 -20 -20 -20 -20 -20 -20 -20 -20 -20 -20 -20 -20 -20
-6 -7 -3 -8 -11 18 1 10 26 28 33 30 29 29 29 16 14 10 13 -20 -1 -7 -20 -20 -20 -20 -20 -20 -20 -20 -20 -20 -20 -20 -20 -20 -20 -20 -20 -20 -20 -20 -20
-20 3 3 -15 -3 15 -14 18 14 28 32 28 21 28 29 28 20 3 -9 -20 -14 -20 -20 -5 -20 -20 -20 -20 -20 -13 -5 -20 -20 -20 -20 -20 -20 -20 -17 -20 -20 -20 -20
-15 -1 -19 2 -10 -20 -20 -12 4 -10 8 27 20 -10 3 -6 15 10 17 -11 -20 -19 -8 -1 -15 -20 -20 -20 -20 -11 -2 15 -20 -20 -15 -13 -20 -20 -20 -20 -20 -19 -20
-12 -1 -3 -3 1 -20 -20 -18 -4 -1 -4 7 22 16 -19 6 14 10 25 16 25 23 3 -20 -20 -20 -20 -20 -20 -18 -8 4 5 -20 -6 15 41 24 13 13 -11 -8 -19

GFSSE_prec_radar_102.txt.gz
Reflectivity
-20 -20 -20 -20 -20 -20 -14 -10 -20 -12 -19 -20 -20 -20 -20 -20 -20 -20 -20 -20 -20 -20 -20 -20 -20 -20 -20 -20 -20 -20 -20 -20 -20 -13 -2 -4 -20 -20 -17 -20 -8 -13 5
-20 -20 -20 -20 -20 -20 3 -20 -20 -20 -20 -20 -20 -20 -20 -20 -20 -20 -20 -20 -20 -20 -16 -20 -20 -20 -20 -20 -20 -20 -20 -20 -20 -18 -11 -20 -18 -1 -15 -20 -15 -20 -6
-20 -20 -20 -20 -20 -20 -20 -20 14 5 -8 2 -7 -20 -20 -20 -20 -20 -20 -20 -19 -16 6 -20 -20 -20 -20 -20 -20 -20 -20 -20 -19 -20 -20 -20 -20 -20 -20 -3 8 10 12
-20 -20 -20 -20 -20 -20 -20 -20 -15 -18 -20 -15 -20 -10 11 -6 -20 -20 -20 -20 -20 -9 -2 9 13 7 -20 -20 -20 0 3 4 2 5 -3 -19 -1 -7 1 5 14 17 3
-20 -20 -20 -20 -20 -20 -20 -20 -20 -20 -20 -20 -20 11 34 22 11 -0 -20 -20 -20 4 -6 -2 -6 -5 -18 -2 2 -5 -1 -16 -20 -9 -20 -14 -1 5 -11 -20 -20 -20 -20
-20 -20 -20 -20 -20 -20 -20 -20 -20 -20 -20 -20 -6 13 30 32 33 -20 -20 -19 -20 -20 -17 11 3 -16 -20 -1 11 -20 -20 -4 -3 -3 -20 -20 -8 9 -20 -20 -20 -20 -12
-20 -20 -20 -20 -20 -20 -20 -19 1 -20 -2 -20 -20 20 -14 25 32 -17 -20 -20 -15 -20 -17 5 -20 -20 -20 -17 -19 -20 -20 -20 -20 -20 -20 -20 -1 -9 -20 -20 -20 -20 -20
-20 -20 -20 -20 -20 -20 -20 -20 7 16 32 22 -7 -20 -18 13 41 1 -20 -10 8 5 -3 5 -16 -18 -20 -20 -20 -14 -20 -20 -20 -20 -20 -20 -3 -20 -20 -20 -20 -16 -12
-20 -20 -20 -20 -20 -20 -20 -20 -17 29 50 37 32 -15 25 23 1 23 -0 11 12 7 15 12 17 14 12 -4 -20 -20 -20 -20 -20 -20 -20 -20 -6 -20 -20 -7 -2 -17 -20
-20 -20 -20 -20 -20 -20 -20 -20 -20 -13 26 44 38 -7 -1 35 18 -9 -20 -20 1 14 -13 -20 -13 -5 -20 -20 -20 -20 -20 -20 -20 -20 -20 -20 -20 -3 -7 -7 -7 -20 -20
-20 -20 -20 -20 -20 -20 -20 -13 2 3 33 43 42 31 32 32 17 -20 -20 -20 -20 13 -20 -20 -20 -20 -20 -20 -20 -20 -20 -20 -20 -20 -20 -17 -6 -0 -12 -20 -20 -20 -20
-20 -20 -20 3 -20 -20 -20 10 10 15 31 41 36 -8 33 29 -17 -20 -20 -20 -16 -6 -20 -20 -20 -20 -20 -20 -20 -20 -20 -20 -20 -20 -20 -3 -11 -2 -20 -20 -20 -20 -20
-20 -20 -20 -15 -20 -20 6 14 29 32 37 35 39 27 40 20 -20 -20 -1 -20 -20 -20 -20 -20 -20 -20 -20 -20 -20 -20 -20 -20 -20 -20 -20 -20 -20 -20 -20 -20 -20 -20 -20
-20 -20 -20 -14 -20 -20 10 15 23 31 46 35 29 36 26 -9 -20 -20 -20 -20 -20 -20 -20 -20 -20 -20 -20 -20 -20 -20 -20 -20 -20 -20 -20 -20 -20 -20 -19 -20 -20 -20 -20
-20 -20 -20 -17 14 -20 -14 12 27 31 40 43 37 41 -12 -20 -2 -20 -16 -14 -20 -20 -20 -20 -20 -20 -20 -20 -20 -20 -20 -20 -20 -20 -20 -20 -20 -16 -17 -20 -20 -20 -20
-20 -20 -20 -2 12 -13 20 7 28 20 10 33 34 29 21 -20 -15 -20 10 -13 -20 -20 -20 -20 -20 -20 -20 -20 -20 -20 -20 -20 -20 -20 -20 -20 -20 -20 -9 -20 -20 -20 -20
-20 -20 -6 11 13 5 -14 12 13 14 -1 19 39 25 30 -20 -20 -20 -12 14 -20 -20 -20 -20 -20 -20 -20 -20 -20 -20 -20 -20 -20 -20 -20 -20 -20 -20 -20 -20 -20 -20 -20
-20 -20 -16 -12 9 14 3 21 13 2 -20 1 13 29 18 31 15 -18 -14 -12 -1 -20 -20 -20 -16 -20 -20 -20 -20 -20 -20 -20 -20 -20 -20 -20 -20 -20 -20 -20 -20 -20 -20
-20 -20 -16 -20 -20 -3 -3 -14 10 25 24 -10 -20 -18 -12 32 34 10 -17 -17 -19 -20 -20 -7 -4 -20 -20 -20 -20 -20 -20 -20 -20 -20 -20 -20 -20 -20 -20 -20 -20 -20 -20
-20 -20 -16 -18 -3 -3 -20 -20 -20 15 23 24 -7 -20 21 29 32 9 8 -19 26 0 7 -2 -19 -20 -20 -20 -20 -20 -20 -20 -20 -20 -20 -20 -20 -20 -20 -20 -20 -20 -20
-20 -20 -20 -14 -14 -20 -20 -0 -2 -20 -19 22 17 9 -8 20 30 25 16 -15 27 12 19 -16 -20 -20 -20 -20 -20 -20 -20 -20 -20 -20 -20 -20 -20 -20 -20 -20 -20 -20 -20
-20 -20 -20 0 -20 -20 -18 -13 -20 -20 -20 -11 27 9 9 15 18 25 23 -0 6 -18 24 13 -16 -4 -20 -13 -18 -20 -20 -20 -20 -20 -20 -20 -20 -20 -20 -20 -20 -20 -20
-20 -20 -20 -20 -20 -20 -12 -10 -20 4 10 20 23 33 -9 1 12 19 21 16 14 -1 5 9 -17 6 -5 13 -18 -20 -20 -20 -20 -20 -20 -20 -20 -20 -20 -20 -20 -20 -20
-20 -20 -20 -1 -20 -2 -20 -4 -11 6 13 28 18 21 30 19 23 23 18 17 17 24 22 7 9 15 20 17 -20 -20 -20 -20 -20 -20 -20 -20 -20 -20 -20 -20 -20 -20 -10
-20 -20 10 -7 2 -20 -20 -20 17 15 18 28 34 37 22 32 26 15 21 16 16 23 19 25 29 20 6 18 7 -20 -20 -20 -20 -20 -20 -20 -20 -20 -20 -20 -20 -20 -15
-20 -20 -12 10 8 -20 -20 -20 -20 3 11 14 28 34 36 26 28 27 19 26 30 32 31 30 25 9 -1 -9 -20 -20 -20 -20 -20 -20 -20 -20 -20 -20 -20 -20 -20 -20 -20

GFSSE_prec_radar_105.txt.gz
Reflectivity
-20 -20 -20 -20 -20 -20 -20 -20 -20 -20 -20 -20 -20 -20 -20 -20 -20 -20 -20 -20 -20 -20 -20 -20 -20 -20 -20 -20 -20 -18 -20 -20 -20 -20 2 10 6 -5 -20 -20 -20 -17 -13
-20 -20 -20 -20 -20 -20 -20 -20 -20 -20 -20 -20 -20 -19 -20 -20 -20 -20 -20 -20 -20 -20 -20 -20 -2 -20 -20 -20 -20 -20 -20 -20 -20 -20 -20 5 11 11 -20 -20 -6 -17 -17
-20 -20 -20 -20 -20 -20 -20 -20 -20 -18 -20 -20 -13 -20 -20 -20 -20 -20 -20 -20 -20 -20 -20 -20 -19 -20 -20 -20 -20 -20 -20 -20 -20 -20 -20 -20 -15 -20 -20 6 -16 11 15
-20 -20 -20 -20 -20 -20 -20 -15 -20 3 -4 -20 -20 0 -20 -20 -20 -20 -20 -20 -20 -5 -20 -20 -20 -20 -20 -20 -20 -20 -20 -20 -20 -20 -20 -9 5 -6 8 14 12 11 11
-20 -20 -20 -20 -20 -20 -20 -20 -20 10 -20 -19 -20 -20 -20 20 3 -20 -20 -20 -20 -5 -20 -20 -20 -20 -20 -20 -20 -20 2 2 -6 4 -20 -13 -19 -0 17 18 11 -4 -18
-20 -20 -20 -20 -20 -20 -20 -20 -20 17 -20 29 -14 -20 -20 -10 -15 -13 -20 -20 -20 -20 -7 -20 -20 -15 18 -8 -17 -20 -3 -11 -13 -9 -3 -11 -19 20 14 -10 -20 3 -1
-20 -20 -20 -20 -20 -20 -20 -20 -20 -20 -20 -13 37 0 -13 30 32 30 30 5 -20 -20 -20 -20 -20 -19 8 7 -20 -20 7 11 -3 -16 -20 -9 3 5 -1 -4 -14 12 15
-20 -20 -20 -20 -20 -20 -20 -20 -20 -20 -12 -3 25 39 -1 6 17 36 31 8 -20 -20 -20 -20 -20 9 6 -19 -20 -14 -17 -18 -20 -20 -20 -20 -10 -20 -11 -4 0 -11 -20
-20 -20 -20 -20 -20 -20 -20 -17 10 0 7 23 32 36 25 21 25 17 24 -2 -20 -10 10 6 -20 -2 14 -20 -20 -20 -20 -20 -20 -20 -20 -20 -20 -20 -20 -20 -20 -20 -20
-20 -20 -20 -20 -20 -20 -20 -20 -20 -20 -13 -13 24 33 36 22 15 31 13 -18 -20 -20 -7 7 0 -2 -7 -20 -19 -18 -20 -20 -20 -20 -20 -20 -20 -20 -20 -20 -8 -10 -20
-20 -20 -20 -20 -20 -20 -20 -20 -17 -20 14 32 30 32 48 22 1 22 -18 -20 -20 -20 -13 11 19 11 7 8 -17 -6 -20 -20 -20 -20 -20 -20 -20 -20 -20 -20 -20 -20 -20
-20 -20 -20 -20 -20 -20 -20 -20 -20 -20 13 26 14 39 40 12 23 23 -20 -20 -5 -16 15 16 11 -9 -20 -20 -20 -20 -20 -20 -20 -20 -20 -20 -20 -20 -20 -20 -10 -9 -20
-20 -20 -20 -20 -20 -20 -20 -20 -20 18 7 10 -3 26 43 32 10 -5 5 -20 -0 -20 -10 7 -20 -20 -20 -20 -20 -20 -20 -20 -20 -20 -20 -20 -20 -20 -20 -20 -20 -19 -20
-20 -20 -20 -20 -20 -20 -20 -20 10 22 28 25 -9 24 31 36 8 -11 -12 -20 -20 -20 -20 -20 -20 -20 -20 -20 -20 -20 -20 -20 -20 -20 -20 -20 -20 -20 -20 -20 -20 -20 -20
-20 -20 -20 -20 -20 -20 -20 -17 15 30 20 26 24 22 32 29 21 -20 -20 -20 -20 -20 -20 -20 -20 -20 -20 -20 -20 -20 -20 -20 -20 -20 -20 -20 -20 -13 -20 -20 -20 -20 -20
-20 -20 -20 -20 -20 -20 -20 2 19 22 23 37 27 29 24 34 -3 -20 -20 -20 -20 -20 -20 -20 -20 -12 -20 -20 -20 -20 -20 -20 -20 -20 -20 -20 -20 -11 -20 -20 -20 -20 -20
-20 -20 -20 -20 -6 3 -20 2 8 21 37 32 39 29 37 20 1 -20 -20 -20 -20 -20 -20 -20 -20 -20 -20 -20 -20 -20 -20 -20 -20 -20 -20 -20 -20 -20 -20 -20 -20 -20 -20
-20 -20 -20 -20 -8 -20 -19 -11 -2 8 18 36 37 37 33 14 -18 -18 -20 -19 -7 -20 -20 -20 -20 -20 -20 -20 -20 -20 -20 -20 -20 -20 -20 -20 -20 -20 -20 -20 -20 -20 -20
-20 -20 -20 -20 -18 -20 -20 8 1 -19 5 7 22 32 35 22 27 -20 -20 -10 11 -20 -20 -20 -20 -20 -20 -20 -20 -20 -20 -20 -20 -20 -20 -20 -20 -20 -20 -20 -20 -20 -20
-20 -20 -20 -20 -20 -20 -20 -20 7 9 -5 5 4 3 29 22 9 -2 4 -19 -6 -20 -20 -20 -20 -20 -20 -20 -20 -20 -20 -20 -20 -20 -20 -20 -20 -20 -20 -20 -20 -20 -20
-20 -20 -20 -20 -8 -20 -20 -20 -20 -14 15 -0 -20 -20 12 -15 -20 14 23 -16 -18 -4 -20 -20 -20 -20 -20 -20 -20 -20 -20 -20 -20 -20 -20 -20 -20 -20 -20 -20 -20 -20 -20
-20 -20 -20 -19 -3 -20 -20 -20 -20 -20 -20 16 6 -11 20 -20 -18 12 28 -12 -7 20 16 1 -20 -20 -20 -20 -20 -17 -20 -20 -20 -20 -20 -20 -20 -20 -20 -20 -20 -20 -20
-20 -20 -20 -20 -20 -20 -1 -20 -20 -20 -20 1 26 17 -1 7 7 12 22 -1 6 18 5 3 9 10 -20 -20 -20 8 -12 1 -20 -20 -20 -20 -20 -20 -20 -20 -20 -20 -20
-20 -20 -20 -5 -20 -20 7 -7 -15 -7 -20 -20 9 32 13 26 16 23 19 10 1 27 29 21 25 -1 -20 -19 -7 10 24 4 -20 -20 -20 -20 -20 -20 -20 -20 -20 -20 -20
-20 -20 -20 -12 -0 -19 -5 -18 -20 -20 -20 5 -16 25 36 22 28 14 18 20 19 25 29 29 26 19 14 17 29 15 5 -15 -20 -20 -20 -20 -20 -20 -20 -20 -20 -20 -20
-20 -20 -20 0 -20 -20 -5 10 -16 -20 -20 -16 21 3 35 25 24 26 19 17 26 25 14 19 21 14 27 27 25 13 4 -20 -19 -20 -20 -20 -20 -20 -20 -20 -20 -20 -20

GFSSE_prec_radar_108.txt.gz
Reflectivity
-20 -20 -20 -20 -20 -20 -20 -20 -20 -20 -20 -20 -20 -20 -20 -20 -20 -20 -20 -20 -20 -20 -20 -20 -14 -2 -19 4 -20 -7 -12 -20 -20 -5 -1 8 10 10 5 -20 -14 -11 11
-20 -20 -20 -20 -20 -20 -20 -20 -20 -20 -20 -20 -20 -20 -20 -20 -20 -20 -20 -20 -20 -20 -20 -20 -20 -20 -20 -20 -20 -20 -20 -20 -20 -2 5 6 15 4 -20 -20 -20 -20 -19
-20 -20 -20 -20 -20 -20 -20 -20 -20 -20 0 -4 -20 -20 -20 -20 -20 -20 -20 -20 -20 -20 -20 9 6 -20 -20 -20 -20 -20 -20 -20 -20 -20 -20 -20 10 11 -20 -20 13 -11 6
-20 -20 -20 -20 -20 -20 -20 -20 -20 -20 -20 -20 -20 -20 -20 -20 -20 -20 -20 -20 -20 -20 16 19 1 -20 -20 -20 -20 -20 -20 -20 -20 -20 -20 -20 -20 4 -5 -19 7 10 8
-20 -20 -20 -20 -20 -20 -20 -20 -20 -20 -19 -3 -3 -20 -20 -20 -20 -20 -20 -20 -20 -20 10 13 -19 -20 -20 -20 -20 -20 -20 -20 -20 -20 -20 -20 -20 3 -20 8 10 4 10
-20 -20 -20 -20 -20 -20 -20 -20 -20 -20 -20 3 9 29 -1 -18 -20 -10 -20 -20 -20 -20 -20 4 -20 -20 -20 -20 9 -20 -20 -20 -20 3 8 10 3 0 8 1 -4 11 14
-20 -20 -20 -20 -20 -20 -20 -20 -20 -20 -2 7 -4 12 19 38 -19 -14 -20 -20 -7 -20 -20 -20 -20 -20 -20 -20 -20 -20 -19 -17 3 1 -11 -19 1 17 16 -18 12 14 10
-20 -20 -20 -20 -20 -20 -20 -20 -20 -16 -20 -3 11 17 35 39 12 21 -20 -20 7 2 -20 -20 -20 -20 -20 -20 -3 6 13 8 -7 10 6 6 1 -20 -19 11 4 -6 -20
-20 -20 -20 -20 -20 -20 -14 0 -18 9 25 32 26 25 12 3 29 20 7 4 -0 -17 -20 -20 -20 -20 -20 -20 7 19 -13 11 7 -20 -20 -15 -20 -20 -20 -20 -20 -20 -20
-20 -20 -20 -20 -20 -20 -20 -4 -3 -14 30 15 16 -14 23 19 39 23 -20 22 -12 -20 -20 -20 -20 1 -5 12 20 1 -9 -20 -20 -20 -20 -20 -20 -20 -20 -20 -20 -16 -4
-20 -20 -20 -20 -20 -20 -20 -20 -12 15 2 28 -11 19 22 20 32 26 30 13 -10 -20 -20 -20 -12 -20 6 8 12 6 -19 0 -5 -17 -20 -20 -20 -20 -5 -18 -20 -20 -20
-20 -20 -20 -20 -20 -20 -20 -20 -20 1 32 14 24 26 23 5 -18 27 23 4 -20 -20 -20 -20 -20 -20 17 12 9 4 -20 -9 -20 -20 -20 -20 -20 -15 -13 -20 -20 -20 -20
-20 -20 -20 -20 -20 -20 -20 -20 -20 -20 -20 27 29 28 26 22 23 39 23 -20 -20 -20 -20 -20 -20 -4 13 19 14 -13 -20 -20 -20 -20 -20 -20 -20 -20 -20 -20 -20 -20 -20
-20 -20 -20 -20 -20 -20 -20 -20 -20 -20 -18 21 10 32 25 38 28 36 25 -20 -20 -20 -20 -20 10 4 -20 -20 -20 -20 -20 -20 -20 -20 -20 -20 -20 -20 -20 -20 -20 -20 -20
-20 -20 -20 -20 -20 -20 -20 -20 -20 -20 24 30 19 33 14 5 15 14 21 -20 -1 -20 -20 -20 -20 -20 -20 -20 -20 -20 -20 -20 -20 -20 -20 -20 -20 -20 -20 -20 -20 -18 -9
-20 -20 -20 -20 -20 -20 -20 -20 -20 -20 30 26 27 32 24 18 22 13 -17 -20 -20 -20 -20 -20 -20 -20 -20 -15 -20 -20 -20 -20 -20 -20 -20 -20 -20 -20 -20 -20 -20 -20 -16
-20 -20 -20 -20 -20 -20 -20 -20 -20 -20 23 27 27 22 11 24 29 3 2 -20 -20 -20 -20 -20 -20 -20 -20 7 -20 -20 -20 -20 -20 -20 -20 -20 -20 -20 -20 -20 -20 -20 -20
-20 -20 -20 -20 -20 -20 -20 -20 -20 -20 14 26 28 23 -1 16 32 -4 -20 -20 -20 -20 -20 -20 -20 -20 -20 10 -20 -20 -20 -20 -20 -20 -20 -20 -20 -20 -20 -20 -20 -20 -20
-20 -20 -20 -20 -20 -20 -20 -20 -20 -20 -17 22 37 27 27 31 29 -3 -4 -20 -20 -20 -20 -20 -20 -20 -16 -8 -20 -20 -20 -20 -20 -20 -20 -20 -20 -20 -20 -20 -20 -20 -20
-20 -20 -20 -20 -20 -20 -20 -12 -20 -17 -20 14 34 35 34 31 3 -16 -12 -20 -20 -20 -20 -20 -20 -20 -20 -20 -20 -20 -9 -18 -20 -20 -20 -20 -20 -20 -20 -20 -20 -20 -20
-20 -20 -20 -20 -20 -20 -20 12 13 -20 -20 10 18 18 35 33 23 14 -20 -20 -20 -20 -20 -20 -20 -20 -20 -20 -20 -20 10 14 -1 -20 -15 -20 -20 -20 -20 -20 -20 -20 -20
-20 -20 -20 -20 -20 -20 -20 -20 -20 5 -14 -15 -15 9 12 28 22 -20 -20 -20 -20 -20 -8 -20 -20 -20 -20 -17 -8 -20 -20 -20 -2 2 -19 4 -20 -20 -20 -20 -20 -20 -20
-20 -20 -20 -20 -20 -20 -20 -20 -20 -20 22 6 10 7 9 8 -1 -20 11 1 -12 -20 -20 -20 -20 -20 -20 -13 -12 -20 -20 -20 -20 -15 5 9 -20 -20 -20 -20 -20 -20 -20
-20 -20 -20 -20 -20 -20 -20 -20 -20 -20 -12 16 -5 -20 16 -6 -20 -20 -10 18 19 -10 -20 -11 -20 -20 -20 -20 -14 -20 -20 -19 -12 6 1 -20 -20 -20 -20 -20 -20 -20 -20
-20 -20 -20 -20 -20 -18 -20 -20 -20 -20 -20 -20 9 24 26 24 16 11 16 11 29 22 -3 3 -9 -7 -20 13 -19 -12 -18 13 9 -13 -11 -20 -20 -20 -20 -20 -20 -20 -20
-20 -20 -20 -20 -20 -20 -20 -16 -15 -20 -20 -9 2 -12 30 35 28 25 16 1 24 12 5 -0 9 -8 25 23 -0 7 23 20 6 13 -19 -20 -20 -20 -20 -20 -20 -20 -20

GFSSE_prec_radar_111.txt.gz
Reflectivity
-20 -20 -20 1 -16 0 -1 -20 -20 -20 -9 -20 -20 -20 -20 -20 -20 -20 -20 -20 -20 -20 -20 -20 -20 -20 -15 4 -6 -20 -20 7 5 -7 7 9 11 6 5 -20 -20 -8 4
-20 -20 -20 -19 -20 -20 -20 -10 -20 -20 -1 -5 -7 -20 -20 -20 -20 -20 -20 -20 -20 -20 0 -14 -20 -18 15 5 0 -20 -8 -17 -17 -20 -9 16 12 13 2 -20 -20 -20 -20
-20 -20 -20 -20 -20 -20 -20 -20 -16 -20 -20 -1 3 -6 -20 -20 -20 -20 -20 -20 -3 1 17 -15 15 16 16 -11 -20 -20 -20 -20 -20 -20 -20 -20 -16 3 -20 -20 -20 -16 -19
-20 -20 -20 -20 -20 -20 -20 -20 -1 -19 -20 -20 -20 -20 -18 -8 -20 -20 -20 -10 -9 -15 -14 18 14 16 5 -16 -20 -20 -20 -20 -20 -20 -20 -20 -10 10 -1 -20 1 -20 -20
-20 -20 -20 -20 -20 -20 -20 -20 -20 -13 -20 -20 -20 -20 -20 -20 -20 -20 -20 -20 -20 -20 5 19 17 8 -3 -20 -20 -20 -20 -20 -20 -20 -20 -20 -20 -16 -20 -20 -20 -20 -20
-20 -20 -20 -20 -20 -20 -20 -20 -20 -20 -10 -0 0 17 -8 -20 -6 -20 -20 -20 -10 5 12 17 4 3 -20 -20 -20 -20 -20 -20 -20 -20 -20 -20 -20 -20 -9 5 -20 12 6
-20 -20 -20 -20 -20 -20 -20 -20 -20 -20 -20 -20 25 2 -17 -16 17 4 -20 -14 -20 4 12 7 -20 -20 -20 -20 -20 -20 -20 -20 -20 -20 -20 -17 19 15 4 -2 0 -3 15
-20 -20 -20 -20 -20 -20 -5 -20 -20 -20 -20 -20 21 37 -15 -2 21 31 -17 9 -16 8 10 -18 -20 -20 -20 -20 -20 -20 -20 -20 -20 -20 -4 2 11 17 9 11 6 12 13
-20 -20 -20 -20 -20 -20 -19 -4 -20 -20 -20 -18 -4 28 7 34 30 31 -5 21 -16 9 13 -18 -20 -20 -20 -20 -20 -20 -20 -20 -19 4 11 19 -6 -1 4 1 -12 -13 0
-20 -20 -20 -20 -20 -20 -20 4 -12 -20 -20 -18 -11 2 -5 -3 26 37 36 32 -20 -14 8 -20 -20 -20 -20 -20 -20 -20 -20 -11 26 14 -14 -20 -8 -2 -1 1 -17 -3 -1
-20 -20 -20 -20 -20 -20 -20 -10 7 -3 18 13 2 -20 -20 -20 11 36 17 15 -16 -20 -20 -20 -20 -16 -20 -12 -20 -19 -8 19 -18 -13 -9 -10 -7 -2 1 8 0 -6 -6
-20 -20 -20 -20 -20 -20 -20 -20 -20 -20 17 7 -12 6 -20 -20 -20 -11 25 4 -19 -20 -20 -20 -16 -2 -20 -17 -1 10 5 5 12 -16 -20 -20 -20 -20 -13 -15 -3 -0 1
-20 -20 -20 -20 -20 -20 -20 -20 -20 -20 -20 16 21 15 -19 -20 -17 -9 20 22 20 -16 -20 -20 -2 -2 -20 -20 5 -12 -20 -19 -19 -20 -20 -20 -20 -20 -20 -20 -20 -13 3
-20 -20 -20 -20 -20 -20 -20 -20 -20 -20 -20 -11 21 24 26 19 16 -0 -4 21 17 1 -20 -20 2 -14 -20 -20 -17 -18 -3 -20 -20 -20 -20 -20 -2 -20 -20 -16 -20 -20 -13
-20 -20 -20 -20 -20 -20 -20 -20 -20 -20 -20 -20 3 21 17 22 27 13 6 5 -20 -20 -20 -20 -20 -5 -16 -18 -7 -19 -20 -20 -20 -20 -20 -20 -20 -20 -20 -3 -12 -20 -20
-20 -20 -20 -20 -20 -20 -20 -20 -20 -20 -20 -20 -13 22 26 21 16 31 21 17 -20 -20 -20 -20 -20 -16 -19 -20 -20 -20 -20 -20 -20 -20 -20 -20 -20 -20 -20 -20 -20 -20 -20
-20 -20 -20 -20 -20 -20 -20 -20 -20 -20 -20 -20 22 22 23 26 23 24 16 25 -20 -20 -20 -20 -20 -20 -5 -18 -20 -20 -20 -20 -20 -20 -20 -20 -20 -20 -20 -20 -20 -20 -20
-20 -20 -20 -20 -20 -20 -20 -20 -20 -20 -20 -15 22 29 33 28 15 26 8 -20 -20 -20 -20 -20 -20 -20 -7 -20 -20 -20 -20 -20 -20 -20 -20 -20 -20 -20 -20 -20 -20 -20 -20
-20 -20 -20 -20 -20 -20 -20 -20 -20 -20 -20 -15 25 32 14 44 18 -4 15 -20 -20 -20 -20 -20 -20 -20 -20 -20 3 -5 -20 -20 -20 -20 -20 -20 -20 -20 -20 -20 -20 -20 -20
-20 -20 -20 -20 -20 -20 -20 -6 -20 -20 -20 -10 25 23 28 33 11 20 -14 -20 -20 -20 -20 -20 -20 -20 -20 -20 -6 -3 -20 -20 -20 -20 -20 -20 -20 -20 -20 -20 -20 -20 -20
-20 -20 -20 -20 -20 -20 -14 15 -4 -20 1 -10 23 16 19 26 23 22 6 -20 -20 -20 -20 -20 -20 -20 -20 -20 -20 -8 -20 -20 -20 -20 -20 -20 -20 -20 -20 -20 -20 -20 -20
-20 -20 -20 -20 -20 -20 -20 -20 -20 -20 -2 -20 11 21 27 23 30 28 14 -20 -20 -20 -20 -20 -20 -20 -20 -20 -2 -20 -20 -20 -16 11 -6 -20 -18 -17 -20 -20 -20 -20 -20
-20 -20 -20 -20 -20 -20 -20 -20 -20 -20 -10 12 -3 24 25 30 27 26 17 -20 -20 -20 -20 -20 -20 -20 -20 -20 -20 -3 -9 -17 -2 -20 -20 3 -7 1 -20 -20 -20 -20 -20
-20 -20 -20 -20 -20 -20 -20 -20 -20 -10 -20 -19 20 -16 16 10 28 29 27 -18 -20 -20 -20 -20 -19 -18 -14 -20 -20 -20 -8 4 -4 1 1 -4 -20 -15 -20 -20 -20 -20 -20
-20 -20 -20 -20 -20 -20 -20 -20 -20 -20 -11 -20 -19 17 4 5 12 25 17 13 3 -20 -20 -14 -11 -20 -20 -20 -20 -20 -4 3 0 8 23 11 -8 -4 10 -17 -20 -20 -20
-20 -20 -20 -20 -20 -20 -14 -20 -20 -20 -20 -20 -9 4 3 7 16 -0 22 25 20 17 16 8 -15 11 -20 -7 -20 -20 -20 -5 -16 5 -14 6 -14 18 16 17 14 -20 -20

GFSSE_prec_radar_114.txt.gz
Reflectivity
-20 -20 -20 -1 15 5 -20 -20 -20 -20 -20 -20 -20 -20 -20 -20 -20 -20 -20 -20 -18 -20 -11 -20 -20 -20 -3 -0 -19 -20 -4 -6 -20 -20 9 15 12 -5 3 -20 -20 -20 -14
-20 -20 -20 12 11 2 -20 -20 -15 8 -2 -20 -20 -20 -20 -20 -20 -20 -20 -20 -19 3 -20 -15 -20 -20 -6 3 -20 -20 -20 -20 -20 -20 6 10 8 6 -3 -20 -20 -12 -16
-20 -20 -20 15 9 -16 -20 -20 -20 5 12 -13 -2 -1 -5 -20 -20 -20 -20 -20 -20 -19 -0 -1 -20 6 -8 5 -6 -20 -20 -20 11 -20 -20 2 7 9 7 -20 11 -20 -20
-20 -20 -16 14 5 -20 -20 -20 -20 10 -1 -2 -12 -1 -5 -20 -20 -20 -20 -14 -15 10 11 -18 4 25 6 -9 -20 -20 -20 -20 -20 -20 -20 3 1 2 -10 -3 -20 -1 -12
-20 -20 -20 4 -5 -20 -20 -20 -20 -15 24 24 10 -18 -20 19 -20 -20 -20 -0 -5 13 9 8 7 13 -1 -20 -20 -20 -20 -20 -20 -20 -20 -20 -20 10 -1 -16 -20 -20 -20
-20 -20 -20 -20 -20 -3 -20 -20 -20 -20 -20 2 4 3 -0 1 -20 -20 -20 -20 -19 -20 23 23 16 5 -7 -20 -20 -20 -20 -20 -20 -20 -20 -20 -20 -0 -20 -20 -20 -20 -11
-20 -20 -20 -20 -20 -1 -6 -20 -20 -20 -20 -20 -20 35 35 34 14 -6 -6 14 -8 1 -1 26 9 9 -20 -20 -20 -20 -20 -20 -20 -20 -20 -20 -20 -20 -20 -20 1 9 7
-20 -20 -20 -20 -20 -4 -1 -20 -20 -20 -20 -20 -20 -20 -2 39 28 31 19 27 3 -11 -6 17 3 4 -20 -20 -20 -20 -20 -20 -20 -20 -20 -20 -11 -20 -12 0 -5 12 9
-20 -20 -20 -20 -20 -8 -3 -20 -20 -20 -20 -20 -20 -20 -19 10 -15 -19 14 29 -4 -20 7 12 13 -20 -20 -20 -20 -20 -20 -20 -20 -20 -20 -20 -4 9 9 5 -16 12 13
-20 -20 -20 -20 -20 -20 -19 -2 -20 -20 -20 -20 -20 -20 -20 -16 -19 6 1 39 -2 -6 12 -6 -17 -20 -20 -20 -20 -20 -20 -20 -20 -20 -20 -20 6 15 -17 -5 18 -6 12
-20 -20 -20 -20 -20 -20 -20 -11 5 9 -11 -20 -20 -20 -20 -20 -20 -20 7 26 13 20 13 12 -20 -20 -20 -20 -20 -20 -20 -20 -20 -20 -13 3 15 -16 -15 -18 18 13 12
-20 -20 -20 -20 -20 -20 -20 -6 -0 10 -20 7 4 -20 -20 -20 -20 -20 -20 27 26 30 12 -20 -20 -20 -20 -20 -20 -1 -20 -20 -20 -20 9 -9 -3 -3 11 12 17 17 17
-20 -20 -20 -20 -20 -20 -20 -20 -20 -11 17 23 27 -16 -19 -20 -20 -20 -20 -19 -18 -9 8 -14 -16 -20 -20 -20 -20 -18 6 -15 -8 -14 4 4 -4 2 4 18 14 18 17
-20 -20 -20 -20 -20 -20 -20 -20 -20 -20 -2 17 21 23 22 14 -7 11 -20 5 -10 17 -20 5 -19 -20 -20 -20 -20 -20 -20 6 -13 3 -20 -20 14 10 1 18 14 0 -10
-20 -20 -20 -20 -20 -20 -20 -20 -20 -20 -7 3 16 21 26 26 21 23 32 23 -10 -0 -1 15 -20 -20 -20 -20 -20 -20 -20 -20 -20 -20 -20 -20 -19 -17 -1 -2 -0 -3 -11
-20 -20 -20 -20 -20 -20 -20 -20 -20 -20 -20 -16 15 7 22 10 22 21 22 30 15 -12 22 3 -20 -20 -20 -20 -20 -19 -2 -11 -20 -20 -20 -20 -20 -20 -9 -2 -2 -20 -6
-20 -20 -20 -20 -20 -20 -20 -20 -20 -20 -18 3 -10 6 1 18 29 23 27 11 -3 -9 -13 -20 -20 -20 -20 -20 -20 -20 -20 -20 -20 -20 -20 -20 -20 -20 -16 2 -0 -20 -7
-20 -20 -20 -20 -20 -20 -20 -20 -20 -20 -20 -20 -13 1 10 14 23 18 27 21 20 8 -20 -20 -20 -20 -20 -20 -20 -20 -20 -20 -20 -20 -20 -20 -20 -20 -20 -20 -3 -20 -20
-20 -20 -20 -20 -20 -20 -20 -20 -20 -20 -20 -20 -20 -20 -10 16 32 28 23 22 18 3 -20 -20 -20 -20 -20 -20 -20 -20 -20 -20 -20 -20 -20 -20 -20 -20 -20 -20 -20 -20 -20
-20 -20 -20 -20 -20 -20 -20 -20 -20 -16 -12 -20 -20 -13 -20 22 27 30 15 25 20 23 -20 -20 -20 -20 -20 -20 -20 -20 -20 -20 -20 -20 -20 -20 -20 -20 -20 -20 -20 -20 -20
-20 -20 -20 -20 -20 -20 -20 -20 -20 -20 -20 3 -20 -20 -17 24 24 39 23 28 8 -7 -20 -20 -20 -20 -20 -20 -20 -20 -20 -20 -20 -20 -20 -20 -20 -6 -3 -20 -20 -20 -20
-20 -20 -20 -20 -20 -20 -20 -3 -19 6 2 -20 -20 6 -5 25 26 28 22 27 5 4 -20 -20 -20 -20 -20 -20 -20 -20 -20 -20 -17 -20 -20 -20 -20 -20 -20 -20 -2 -20 -20
-20 -20 -20 -20 -20 -20 -20 -10 -4 1 -20 -17 -9 1 6 33 33 24 26 10 15 4 1 -20 -20 -17 -19 -20 -20 -20 -18 5 11 -20 -20 -20 9 2 -2 -20 -20 -20 -20
-20 -11 -20 -20 -20 -20 -20 -20 -20 -20 -20 -20 -20 7 -11 24 34 27 26 9 1 3 -20 -20 -20 -20 -20 -20 -20 -18 -18 -19 -8 -20 -20 -18 -16 16 -12 -20 -8 -6 -16
-20 -20 -20 -20 -20 -20 -20 -20 -20 -20 -20 -20 -20 -1 8 4 20 32 27 12 10 -7 -20 -20 -20 -20 -20 -20 -20 -20 -20 -20 -13 -20 -20 -19 -19 -16 -20 -20 -20 -20 -20
-20 -20 -20 -20 -20 -20 -20 -20 -20 -20 -20 -18 -12 -14 19 7 1 22 32 26 25 2 -6 -20 -20 -20 -20 -20 -20 -18 -20 -20 -20 -20 -14 21 -14 6 -18 -20 -0 -20 -20

GFSSE_prec_radar_117.txt.gz
Reflectivity
-20 -20 -20 -17 7 -20 -20 -20 -20 -20 -20 -20 -20 -20 -20 -20 -20 -20 -20 -20 7 5 4 -1 -6 -2 -2 -3 -20 -20 -6 -20 -20 -19 -16 2 3 1 -14 -20 -20 -20 -20
-20 -20 -20 -20 3 -20 -20 -20 -20 -20 -20 -20 -20 -19 -20 -20 -20 -20 -20 -20 3 5 7 -15 -16 3 5 -13 -20 -18 -20 -20 -20 -12 -20 10 13 15 -8 -20 -20 -8 -20
-20 -20 -20 -20 14 -15 -20 -20 -20 -9 -20 -6 -4 -19 -20 -20 -20 -20 -18 -5 6 10 11 5 -20 -12 -19 -20 -20 -20 -20 -20 -20 -20 -20 -5 8 5 -1 -20 -20 -20 1
-20 -20 -20 -20 7 7 -20 -20 -20 -20 4 -16 -20 -20 -20 -20 -3 -20 -5 2 4 8 12 14 25 9 3 -20 -20 -20 -20 -20 -20 -20 -20 -7 8 6 -11 -20 -17 -19 -20
-20 -20 -20 -20 3 2 -20 -20 -20 3 10 -20 -20 -20 -20 -20 -10 -20 -14 -20 -20 -13 7 -14 -20 -1 -6 -20 -20 -20 -20 -20 -20 -20 -20 5 12 9 2 -17 -20 -20 6
-20 -20 -20 -20 -14 5 -20 -20 -20 -20 -20 -20 -20 -20 -8 -13 40 41 10 -1 -2 1 11 -8 -20 -10 -20 -20 -20 -20 -20 -20 -20 -20 -20 -16 9 4 -20 -20 -20 -20 -20
-20 -20 -20 -20 -20 -0 -20 -20 -20 7 2 -20 -20 -20 -20 11 42 14 40 20 3 -20 -15 -15 -15 -19 -20 -20 -20 -20 -20 -20 -20 -20 -20 -20 -19 -20 -20 -20 -20 -20 -20
-20 -20 -20 8 -20 -10 -2 -20 -20 -20 2 -20 -20 -20 -20 -20 -2 6 32 23 2 -17 7 -9 16 -7 -20 -20 -20 -20 -20 -20 -20 -20 -20 -20 -20 -20 -20 -20 -20 -20 -14
-20 -20 -20 -17 -3 -20 -20 -11 -20 -20 -20 -20 -20 -17 -20 -20 -20 -2 4 24 10 2 -20 -20 -12 -18 -20 -20 -20 -20 -20 -20 -20 -20 -20 -16 -20 -20 -20 -20 -20 -20 -17
-20 -20 -20 -20 -20 5 -2 -6 -20 -20 -20 -20 -20 -20 -20 -20 -20 -20 -20 -20 -20 23 -14 -20 -20 -20 -20 -20 -20 -20 -20 -20 -20 -20 -20 -19 -7 -2 4 -19 11 3 -20
-20 -20 -20 -20 -12 -14 2 3 -13 -16 -20 -20 -20 -20 -20 -20 -20 -20 -20 -20 -20 3 10 -9 -7 -20 -20 -20 -20 -20 -20 -20 -20 -20 -20 -8 4 -6 -1 9 11 15 5
-20 -20 -20 -20 -20 8 -9 -20 8 0 3 -19 -20 -20 -20 -20 -20 -20 -20 -20 -20 -20 13 14 -5 -20 -20 -20 -20 -20 -20 -20 -20 -20 -20 -20 0 4 3 4 5 2 -5
-20 -20 -20 -20 -19 1 -2 -12 -1 12 12 -3 18 -20 -20 -20 -20 -20 -20 -20 -18 -11 20 26 -17 6 -9 -20 -20 -20 -20 -20 -20 -20 -20 -20 2 7 7 8 11 -6 7
-20 -20 -20 -20 -20 -1 8 -17 -18 2 -3 -8 2 2 -13 -11 -19 -20 -20 -3 -20 -20 3 9 -20 -20 -20 -20 -20 -20 -20 -13 -18 -20 -20 -20 8 9 -9 2 3 -19 -2
-20 -20 -20 -20 -20 -20 -18 9 2 -19 -20 9 -11 24 7 13 -7 -20 -5 -0 -9 -5 -20 -5 -6 -20 -20 -20 -20 -20 -20 -20 -20 2 -18 -11 -9 -20 -12 14 10 -3 -1
-20 -20 -20 -20 -20 -20 -20 -20 -16 -18 -20 -4 -4 10 20 20 -15 -14 -2 23 8 16 1 -20 -15 -9 -20 -20 -20 -20 -20 -20 -20 -1 -17 -20 -20 -20 2 16 15 14 -5
-20 -20 -20 -20 -20 -20 -20 -20 -20 -20 -20 -5 -4 -20 -7 12 9 23 25 22 19 10 16 -0 6 -20 -20 -20 -20 -20 -20 -20 -20 -20 -20 -20 -20 -20 6 13 7 -2 -0
-20 -20 -20 -20 -20 -20 -20 -20 -20 -20 -20 -7 -13 8 8 4 -8 -12 20 17 22 9 23 -7 11 -20 -20 -20 -20 -20 -20 -20 -20 -20 -20 -20 -20 -20 -5 -6 -6 -20 -19
-20 -20 -20 -20 -20 -20 -20 -20 -20 -20 -20 -20 -20 -6 2 5 2 -4 10 20 27 12 16 7 -20 -20 -20 -20 -20 -20 -20 -20 -20 -20 -20 -20 -20 -20 -20 -20 -20 -20 -20
-20 -20 -20 -20 -20 -20 -20 -20 -20 -18 -20 3 -16 -11 -7 15 1 5 17 33 24 11 -1 7 -20 -20 -20 -20 -20 -20 -20 -20 -20 -20 -20 -20 -20 -20 -20 -20 -20 -20 -20
-20 -20 -20 -20 -20 -20 -20 -20 -20 -20 0 -20 7 0 2 -20 12 9 40 28 29 32 5 4 -20 -20 -20 -20 -20 -20 -20 -20 -20 -20 -20 -20 -20 -20 -20 -20 -20 -20 -20
-20 -20 -20 -20 -20 -20 -20 -20 -20 -17 -6 5 -4 -2 -20 -7 -2 21 34 35 24 4 27 -15 -14 -20 -20 -20 -20 -20 -13 -19 -20 -20 -20 -20 -20 -20 -20 -20 -20 -17 -20
-20 -20 -20 -20 -20 -20 -20 -17 -20 -13 -8 8 -9 -10 -20 -10 -8 23 30 28 28 23 11 -19 -20 -20 -20 -20 -20 -20 -15 6 -20 -20 -20 -20 -20 -20 -20 -17 22 -9 -20
-20 -20 -20 -20 -20 -20 -20 -20 -20 -20 -17 15 -20 -20 -1 -17 -8 28 21 35 30 18 -6 4 -12 -20 -20 -20 -20 -20 -20 -20 -20 -4 -7 -18 -20 -20 -20 15 31 -20 -12
-20 -20 -20 -20 -20 -20 -20 -20 -20 14 -18 -0 -2 -8 14 5 6 9 32 33 33 23 2 -15 -15 -20 -4 -20 -20 -20 -20 -20 -20 -18 8 -20 -20 -20 -20 8 4 -20 -20
-20 -20 -20 -20 -15 -7 -20 -20 -20 -20 -19 -6 3 4 8 3 8 16 24 32 30 21 -3 13 -20 -20 -20 -20 -20 -20 -20 -20 -20 -20 -20 -20 -20 -19 0 -20 -6 -20 -16

GFSSE_prec_radar_123.txt.gz
Reflectivity
-20 -20 -20 -20 -20 -20 -20 -20 -20 -20 -20 -20 -20 -20 -20 -20 -20 -20 -20 -20 -20 -20 -20 -20 -20 -20 -17 2 -2 -15 -20 -20 -20 -20 -19 -14 -20 -20 -20 -1 -9 2 -20
-20 -20 -16 -20 -20 -20 -20 -20 -20 -20 -20 -20 -20 -20 -20 -20 -20 -20 -20 -20 -20 -20 -20 -20 -20 -20 -20 -10 3 -20 -20 -20 -20 -20 -20 -20 -18 -20 -20 -2 -20 -7 -20
-20 -20 -20 -20 -20 -20 -20 -20 -20 -20 -20 -20 -20 -20 -20 7 -20 -20 -20 -20 -20 -20 -20 -20 -6 1 -20 -20 -20 -4 2 -20 -20 -20 -19 -18 7 -20 -20 -20 -20 -20 -20
-20 -20 -20 -20 -20 -20 -20 -20 -20 -20 -20 -20 -20 -20 -20 -8 -2 -20 -20 -20 -20 13 -20 -20 -20 -16 -12 -20 -20 -20 -20 -20 -20 -20 -20 -14 -20 -15 -20 -20 -20 -10 -6
-20 -20 -20 -20 -20 -20 -20 -20 -20 -20 -1 -20 -20 -20 -20 15 -12 -20 -20 6 13 10 7 -15 -18 -20 7 -20 -20 -20 -20 -20 -20 -20 -9 -18 -20 7 -8 -16 -20 5 10
-20 -20 -20 -20 -20 -20 -20 -20 -20 -20 -20 -20 -8 -19 -20 -20 -20 -20 -20 3 41 48 36 29 36 -10 -20 -20 -20 -20 -20 -20 -20 -20 -20 -20 -20 7 -19 1 -19 -20 -20
-20 -20 -20 -20 -20 -20 -20 -20 -20 -20 2 -20 6 -4 -20 5 -20 -20 -20 22 24 31 40 34 13 -20 -20 -20 -20 -20 -20 -20 -20 -20 -20 -20 -15 2 -20 -20 -20 -20 -20
-20 -20 -20 -20 -20 -20 -20 -20 -20 -20 11 10 -20 -20 -20 -20 -20 -20 -20 -17 1 -2 20 28 28 -20 -20 -20 -20 -20 -20 -20 -20 -20 -20 -20 -9 -11 -16 -20 -20 -20 -20
-20 -20 -20 -20 -20 -20 -20 -20 -20 -20 -14 4 -8 -17 -20 -20 -20 -20 -20 -20 -20 -19 2 28 29 15 -20 -20 -20 -20 -20 -20 -20 -20 -20 -20 -20 -20 -20 -20 -20 -20 -20
-20 -20 -20 -20 -20 -20 -20 -20 -20 -20 -20 6 -20 -20 -20 -20 -20 -20 -20 -20 -20 -20 -20 -15 26 32 -19 -20 -20 -20 -20 -20 -20 -20 -20 -20 -20 -19 4 -20 -20 -20 -20
-20 -20 -20 -20 -20 -20 -20 -20 -14 -20 -20 -20 -16 -20 -20 -20 -20 -20 -20 -20 -20 -20 -20 -20 24 -20 -10 -20 -20 -20 -20 -20 -20 -20 -20 -20 -20 -11 -7 -20 -20 -20 -20
-20 -20 -20 -20 -20 -20 -20 -17 -20 -10 -20 -18 -6 6 -2 -4 20 -20 -20 -4 -20 -20 -20 -0 26 32 17 -20 -13 -20 -20 -18 -20 -20 -20 -20 -20 1 12 -20 -20 -20 -20
-20 -20 -20 -20 -20 -20 -20 -20 -19 -20 -20 -20 -6 4 1 -20 -16 -20 27 -20 -14 -20 -18 -2 -11 23 26 -12 -17 -20 -20 -20 -20 -20 -20 -20 -19 5 2 -19 -20 -20 -18
-20 -20 -20 -20 -20 -20 -20 -17 -2 -20 -20 -20 -20 6 1 -20 -20 -18 -20 22 -20 -15 23 -20 14 24 29 -20 -20 -20 -18 -20 -20 -20 -20 -20 3 11 18 3 -19 -20 1
-20 -20 -20 -20 -20 -20 -20 -20 -15 -20 -20 -20 -20 -20 9 2 -20 -16 0 -17 -20 -2 14 -16 -16 15 25 -20 -20 -20 -18 -20 -20 -20 -20 -20 3 -8 7 6 -20 7 -9
-20 -20 -20 -20 -20 -20 -19 -20 -11 -20 -20 -20 -20 -14 8 6 5 -10 -20 -2 25 27 -5 9 24 8 19 -20 -20 -18 -20 -20 -20 -20 -20 -17 -15 -2 3 10 -1 -4 6
-20 -20 -20 -20 -20 -20 -20 -17 -5 -19 -20 -20 -17 3 8 2 -0 -20 -20 -13 -20 8 33 33 34 27 15 -10 -20 -20 -18 -20 -20 -20 -20 -20 -20 -9 -4 -18 -16 6 -6
-20 -20 -20 -20 -20 -20 -20 -14 -4 6 -3 -20 -2 8 7 9 5 30 0 4 -14 24 28 30 36 27 27 -19 -20 -14 -20 -20 -20 -20 -20 -20 -20 -20 -20 3 -20 1 8
-20 -20 -20 -20 -20 -20 -20 -20 -18 -11 -4 -15 -20 3 -13 12 3 11 4 -20 7 8 13 30 36 26 12 -20 18 6 -20 -20 -20 -20 -20 -20 -20 -20 -20 -20 -19 -20 -9
-20 -20 0 -19 -20 -20 -20 -20 -20 10 -2 -6 -3 -20 7 11 13 26 -0 -10 -12 -1 26 23 32 30 13 -20 9 -20 -20 -20 -20 -20 -20 -20 -20 -20 -20 -20 -20 -20 -20
-20 -16 -20 -20 -20 -20 -20 -20 -20 5 -1 -20 4 4 -20 -20 12 10 12 -9 -20 6 14 25 30 32 21 -20 -20 -10 -2 -18 -20 -20 -20 -20 -20 -20 -20 -20 -20 -20 -20
-20 -20 -20 -20 -20 -20 -20 -20 -20 6 -20 -20 -1 -1 -20 2 -12 12 12 -4 0 13 -11 2 35 32 25 1 4 -12 11 18 16 -20 -20 -20 -20 -20 -20 -20 -20 -20 -20
-20 -20 -6 -20 -20 -20 -20 -20 -12 -20 -17 -3 2 -14 -20 -9 1 14 11 2 -2 -1 21 -11 31 35 21 -2 25 -20 -3 8 -7 -20 -8 -20 -20 -20 -20 -20 -20 -20 -20
-20 -20 -20 -20 -20 -20 -20 -20 -20 -13 6 -16 4 2 -8 -5 2 6 12 -1 9 10 5 9 30 30 31 17 19 -6 -20 -20 8 12 -9 -20 -20 -20 -20 -20 -20 -20 -20
-20 -20 -20 -20 -20 -20 -19 -13 -9 16 10 -6 4 -20 -0 -3 1 9 6 9 -2 16 11 15 23 32 23 23 -4 -15 -20 -20 -20 -20 7 1 -20 -20 -20 -20 -20 -20 -20
-20 -20 -2 2 -20 -15 3 6 -5 14 7 5 -20 -14 3 9 12 7 12 -2 -9 -20 10 24 31 28 28 34 23 -11 -20 -20 -20 -20 -16 -20 -7 -10 -20 -20 -20 -20 -20

GFSSE_prec_radar_129.txt.gz
Reflectivity
-20 -20 -20 -20 -20 -20 -20 -20 -20 -20 -20 -20 -20 -20 -20 -20 -20 -20 -20 -20 -20 -20 -20 -20 -20 -20 -20 -20 -20 -20 -15 -20 -20 -16 -10 -20 -20 -20 -20 -20 -20 -20 -20
-20 -20 -20 -20 -20 -20 -20 -20 -20 -20 -20 -20 -20 -20 -20 -20 -20 -20 -20 -20 -19 -20 -20 -20 -20 -20 -20 -20 -20 -20 -20 -20 -20 -20 -20 -20 -20 1 -20 -20 -20 -2 -20
-20 -20 -20 -20 -20 -20 -20 -20 -20 -20 -20 -20 -20 -20 -20 -20 -20 -20 -20 -20 -20 -20 -19 6 8 -19 -20 -20 -20 -20 -20 -20 -20 -20 -20 -20 -20 -20 -20 19 -20 -20 -20
-20 -20 -20 -20 -20 -20 -20 -20 -20 -20 -20 -20 -20 -20 -20 -20 -20 -20 -20 -20 -20 -20 -20 -20 18 23 12 -9 -20 -20 -20 -20 -20 -20 -20 -20 -20 -20 -20 -20 -20 -20 -14
-20 -20 -20 -20 -20 -20 -20 -20 -20 -20 -20 -20 -20 -20 -20 -20 -20 -20 -20 -20 -20 -20 -20 -20 20 25 17 13 -11 -20 -0 -20 -20 -20 -20 -20 -20 -8 -0 -5 -20 -0 -20
-20 -20 -20 -20 -20 -20 -20 -20 -20 -20 -20 -20 -20 -20 -20 -20 -20 -20 -20 -20 -20 -20 -20 -5 17 12 -11 20 -6 -20 -20 -20 -20 -20 -20 -20 -20 -5 -11 -20 -20 -4 2
-20 -20 -20 -20 -20 -20 -20 -20 -20 -20 -20 -20 -20 -20 -20 -20 -20 -20 -20 -20 -20 -20 -20 -20 -20 -20 -10 27 -19 -20 -13 -20 -20 -11 3 -20 -20 -16 -2 -20 -20 -20 -20
-20 -20 -20 -20 -20 -20 -20 -20 -20 -20 -20 -20 -20 -20 -20 -20 -20 -20 -20 -20 -20 -20 -20 -20 -20 -8 6 31 -15 -20 -20 -17 -5 31 22 -9 -20 -16 18 -18 -20 -20 -20
-20 -20 -20 -20 -20 -20 -20 -20 -20 -20 -20 -20 -20 -20 -20 -20 -20 -20 -20 -20 -20 -20 -20 -20 -20 -20 3 27 -9 -20 -20 15 -20 -6 24 3 -20 -20 10 -15 -20 -20 -20
-20 -20 -20 -20 -20 -20 -20 -20 -20 -20 -20 -20 -5 -18 -20 -20 -20 -20 -20 -20 -20 -20 -20 -20 -20 -20 -1 16 -18 -20 2 -20 -18 -20 2 9 -20 -20 15 -1 -20 -20 -20
-20 -20 -20 -20 -20 -20 -20 -20 -20 -20 -20 -15 -2 12 -20 -20 -20 -20 -20 -20 -20 -20 -20 -20 -20 -20 26 30 19 -10 -11 -20 11 -20 -20 -20 -20 4 1 -3 -20 -20 -20
-20 -20 -20 -20 -20 -20 -20 -20 -20 -20 -20 -20 -19 -12 -8 -20 -20 -20 -20 -7 -20 -20 -20 -20 -20 -20 -20 4 15 12 -8 -20 -20 -20 -20 -20 -20 -20 -20 -20 -12 -10 -1
-20 -20 -20 -20 -20 -20 -20 -20 -20 -20 -20 -20 -20 -19 -20 -20 -20 -20 -20 -20 -20 -20 -20 -20 -20 -20 -20 15 18 12 -20 -20 -20 -20 -20 -20 -20 -19 -20 -11 1 -12 -10
-20 -20 -20 -20 -20 -20 -20 -20 -20 -20 -20 -20 -20 -20 -20 -20 -20 -20 -20 -20 -20 -20 -20 -20 -20 -20 -20 6 -19 -20 -20 -20 -20 -20 -20 -20 -20 -20 -20 3 12 13 3
-20 -20 -20 -20 -20 -20 -20 -20 -20 -20 -20 -20 -20 -20 -20 -20 -20 -20 -20 -20 -13 -20 -20 -19 -20 -20 -20 10 -17 -20 -20 -20 -20 -20 -20 -20 -20 -20 -20 3 10 7 2
-20 -20 -20 -20 -20 -20 -20 -20 -20 -20 -20 -20 -20 -20 -20 -20 -20 -20 -20 -20 -20 -20 -20 -20 19 4 14 3 9 28 -17 -20 -20 -20 -20 -20 -20 -20 -20 -10 -15 15 9
-20 -20 -20 -20 -20 -20 -20 -20 -20 -20 -20 -20 -20 -20 -20 -20 -20 -20 -20 -20 -20 -20 -20 -20 -20 21 24 16 24 34 14 -20 -20 -20 -20 -20 -20 -20 -20 -5 4 -2 16
-20 -20 -20 -20 -18 -20 -20 -20 -20 -20 -20 -20 -20 -20 -20 -20 -20 -20 -20 -20 -20 -20 -20 -20 -16 -13 16 23 23 34 20 -20 -20 -20 -20 -20 -20 -20 -20 -20 -20 4 1
-20 -20 -20 -20 -20 4 -20 -20 -20 -20 -20 -20 -17 -8 -7 -15 -6 8 -13 -20 -20 -20 -20 -20 -20 -0 4 15 21 34 20 -17 -20 -20 -20 -20 -20 -20 -20 -20 -20 -20 -20
-20 -20 -20 -20 -12 10 -20 -20 -18 -20 -20 -20 -20 1 6 13 13 15 11 12 -20 -20 -20 -16 1 -7 6 12 35 27 13 17 -19 -20 -20 -20 -20 -20 -20 -20 -20 -20 -20
-20 -20 -20 -20 -20 -20 -20 -20 -20 -20 -20 -20 -20 -20 -3 17 18 17 16 4 -7 -20 -20 -20 10 2 -20 -6 14 28 30 24 15 -2 -20 -20 -20 -20 -20 -20 -20 -20 -20
-20 -20 -20 -20 -20 -20 -20 -20 -20 -20 -20 -20 -20 -20 -16 13 19 19 19 8 10 -20 -14 21 10 9 -20 -18 6 23 27 27 -6 -2 11 -16 -20 -20 -20 -20 -20 -20 -20
-20 -20 -20 -20 -20 -20 -20 -20 -20 -20 -20 -20 -19 -13 -14 13 16 6 18 16 13 17 10 16 13 9 -20 -20 -20 -9 6 9 14 6 -10 6 -20 -20 -20 -20 -20 -20 -20
-20 -20 -4 -14 -20 -20 -20 -20 -20 -20 -20 -20 -20 -20 17 10 16 18 11 19 13 11 20 8 0 -9 -15 -20 11 -20 -20 -20 -1 16 -20 -18 -20 -20 -20 -20 -20 -20 -20
-20 2 10 -20 -20 -20 -20 -20 -20 -20 -20 -20 -20 9 -15 13 15 19 19 25 19 15 20 10 6 14 9 11 -20 -20 -20 -18 -12 -9 -9 -20 -18 -2 -20 -20 -20 -20 -20
-20 13 8 -20 -20 -20 -20 -20 -20 -20 -20 -20 -20 4 -16 10 12 11 15 20 20 8 7 5 9 4 -20 22 4 13 -12 -20 -20 -20 -3 -19 -20 -20 -20 -20 -20 -20 -20

GFSSE_prec_radar_135.txt.gz
Reflectivity
-20 -20 -20 -20 -20 -20 -20 -20 -20 -20 -20 -20 -20 -20 -20 -20 -20 -20 -20 -20 -20 -20 -20 -20 -20 -20 -20 -20 -20 -20 -20 -20 33 41 26 2 1 14 23 21 23 -4 -20
-20 -20 -20 -20 -20 -20 -20 -20 -20 -20 -20 -20 -20 -20 -20 -20 -20 -20 -20 -20 -20 -20 -20 -20 -20 -13 -20 -20 -20 -20 -20 -20 26 37 25 -17 7 4 -20 -13 -20 -20 -20
-20 -20 -20 -20 -20 -20 -20 -20 -20 -20 -20 -20 -20 -20 -20 -20 -20 -20 -20 -20 -20 -20 -20 -20 -20 -20 -20 -20 -20 -20 -20 -20 -20 17 28 6 -19 -20 -20 -20 17 -20 -17
-20 -20 -20 -20 -20 -20 -20 -20 -20 -20 -20 -20 -20 -20 -20 -20 -20 -20 -20 -20 -20 -20 -20 -20 -20 -20 -20 -20 -20 -20 -20 -20 -20 -3 -5 -20 -20 -20 -13 -20 -20 -8 -2
-20 -20 -20 -20 -20 -20 -20 -20 -20 -20 -20 -20 -20 -20 -20 -20 -20 -20 -20 -20 -20 -20 -20 -20 -20 -20 -20 -20 -20 -20 -20 -20 -20 -20 -20 -20 -20 -8 -4 -10 -3 -20 -20
-20 -20 -20 -20 -20 -20 -20 -20 -20 -20 -20 -20 -20 -20 -20 -20 -20 -20 -20 -20 -20 -20 -20 -20 -20 -20 -20 -20 -20 -20 -20 -8 -20 -20 -20 -19 -20 -6 1 -20 -20 -20 -20
-20 -20 -20 -20 -20 -20 -20 -20 -20 -20 -20 -20 -20 -20 -20 -20 -20 -20 -20 -20 -20 -20 -20 -20 -20 -20 -20 -20 -20 -20 -6 -11 -20 -20 -20 -20 3 9 5 6 -20 1 -13
-20 -20 -20 -20 -20 -20 -20 -20 -20 -20 -20 -20 -20 -20 -20 -20 -20 -20 -20 -20 -20 -20 -20 -20 -20 -20 -20 -20 -20 -20 -10 -16 -20 -20 -20 -20 -20 15 11 6 -20 -20 -11
-20 -20 -20 -20 -20 -20 -20 -20 -20 -20 -20 -20 -20 -20 -20 -20 -20 -20 -20 -20 -20 -20 -20 -20 -20 -20 -20 -20 -20 -20 -18 -3 -20 -20 -20 -20 -1 23 17 6 -20 -20 -20
-20 -20 -20 -20 -20 -20 -20 -20 -20 -20 -20 -20 -20 -20 -20 -20 -20 -20 -20 -20 -20 -20 -20 -20 -20 -20 -20 -20 -11 -19 -9 -6 -20 -20 -6 13 -19 30 23 18 0 -16 -20
-20 -20 -20 -20 -20 -20 -20 -20 -20 -20 -20 -20 -20 -20 -20 -20 -20 -20 -20 -20 -20 -20 -20 -20 -20 -20 -20 -20 13 -20 8 -19 -20 -11 -20 -20 32 -5 8 15 15 13 -6
-20 -20 -20 -20 -20 -20 -20 -20 -20 -20 -20 -20 -20 -20 -20 -20 -20 -20 -20 -20 -20 -20 -20 -20 -20 -20 -20 -20 -20 -20 11 27 -18 -20 -4 -20 -20 0 -2 13 15 14 6
-20 -20 -20 -20 -20 -20 -20 -20 -20 -20 -20 -20 -20 -20 -20 -20 -20 -20 -20 -20 -20 -20 -20 -20 -20 -20 -20 -20 -20 -20 -14 21 6 -20 -20 -20 -17 -11 11 14 14 6 -12
-20 -20 -20 -20 -20 -20 -20 -20 -4 -19 -20 -20 -20 -20 -20 -20 -20 -20 -20 -20 -20 -20 -20 -20 -20 -20 8 -20 -20 -20 -20 23 28 -7 -20 -20 -14 -19 3 15 13 11 6
-20 -20 -20 -20 -20 -20 -20 -20 -20 -20 -16 -12 -20 -20 -20 -20 -20 -20 -20 -20 -20 -20 -20 -20 -20 -20 -20 -20 -18 -20 -20 24 32 -12 32 -20 -20 -20 -2 9 14 13 -4
-20 -20 -20 -20 -20 -20 -20 -20 -20 -20 -20 -20 -20 -20 -1 -8 -20 -20 -20 -20 -20 -20 -20 -20 -20 -20 -20 -20 -9 -3 15 17 16 -20 -20 -20 -20 -14 5 -6 9 15 14
-20 -20 -20 -20 -20 -20 -20 -20 -20 -20 -20 -20 -20 -20 -14 2 11 -10 -20 -20 -20 -20 -20 -20 16 -20 -20 -20 -20 -14 15 23 25 18 16 -20 -20 -20 -0 6 13 12 14
-20 -20 -20 -20 -20 -20 -20 -20 -20 -20 -20 -20 -20 -20 -20 -10 6 8 -20 -20 -20 -20 -20 -20 -20 -20 -20 -20 -20 -11 -16 0 22 20 1 -20 -20 -20 -20 -20 9 12 15
-20 -20 -20 -20 -20 -20 -20 -20 -20 -20 -20 -20 -20 -20 -20 -20 -20 -20 -3 -20 -20 -20 -20 -20 -20 -20 -7 -20 -20 6 -7 6 7 29 18 -20 -20 -20 -20 -20 -7 15 11
-20 -20 -20 -20 -20 -20 -20 -20 -20 -14 -17 -20 -20 -19 -20 -20 -20 -20 -20 -20 -20 -20 -20 -20 -16 -19 -20 -20 -20 3 2 21 28 24 20 -10 -20 -20 -20 -20 -5 8 6
-12 7 -20 -20 -20 -20 -20 -20 -20 -2 9 12 5 5 -20 -19 -20 -20 -20 -20 7 6 2 13 -17 -16 -20 -20 -20 2 9 -1 2 27 15 -9 -20 -20 -20 -20 -20 -20 -7
-20 -20 -20 -5 3 -7 -20 -20 17 -19 -18 5 -3 -17 -10 -17 -20 -20 -20 -7 -20 -11 -4 26 -6 -12 -20 -20 -20 -17 16 -19 -20 -12 11 -6 -20 -20 -20 -20 -20 -20 -20
-20 -20 -20 -20 5 5 -17 15 -10 -20 -12 -20 -20 -20 -20 -20 8 -7 -20 15 -20 7 -7 33 -14 -19 5 -13 -20 -16 20 -16 -20 -20 17 3 -2 1 -20 -20 -20 -20 -20
-20 -20 -20 -20 -20 7 12 -13 -1 -15 1 -20 -20 -20 -20 -0 -2 -10 -18 6 -20 -20 23 -20 18 -9 12 12 -18 -20 -19 -20 -20 -13 10 32 18 13 -20 -19 -20 -20 -20
-20 -20 -9 -13 -11 -9 -17 4 -18 -2 -5 4 -2 -13 -15 12 2 27 -13 8 -20 -18 -20 -20 16 19 -8 16 17 10 -19 -20 10 -12 -19 8 7 -10 7 -1 -20 -20 -20
-20 -20 -20 -18 -16 1 2 -5 5 2 12 9 12 11 2 21 13 16 -3 12 17 -20 4 -7 -20 -8 1 12 10 -1 -3 5 -20 4 -20 -20 -14 -7 26 8 -20 -20 -20

GFSSE_prec_radar_138.txt.gz
Reflectivity
-20 -20 -20 -20 -20 -20 -20 -20 -20 -20 -20 -20 -20 -20 -20 -20 -20 -20 -20 -20 -20 -20 -20 -20 -20 -20 -20 -20 -20 -20 -20 -20 -8 15 37 37 38 -1 -1 -15 -18 8 14
-20 -20 -20 -20 -20 -20 -20 -20 -20 -20 -20 -20 -20 -20 -20 -20 -20 -20 -20 -20 -20 -20 -20 -20 -20 -20 -20 -20 -20 -20 -20 -20 -20 -20 12 40 34 25 -19 -1 20 -7 -18
-20 -20 -20 -20 -20 -20 -20 -20 -20 -20 -20 -20 -20 -20 -20 -20 -20 -20 -20 -20 -20 -20 -20 -20 -20 -20 -20 -20 -20 -20 -20 -16 -20 12 8 36 10 3 -1 -19 -20 -4 -20
-20 -20 -20 -20 -20 -20 -20 -20 -20 -20 -20 -20 -20 -20 -20 -20 -20 -20 -20 -20 -20 -20 -20 -20 -20 -20 -20 -20 -20 -20 -20 -6 -4 -20 -14 16 -5 21 15 26 6 1 -11
-20 -20 -20 -20 -20 -20 -20 -20 -20 -20 -20 -20 -20 -20 -20 -20 -20 -20 -20 -20 -20 -20 -20 -20 -20 -20 -20 -20 -20 -20 -20 -20 -20 -20 -20 -20 0 -12 0 -0 -8 -20 -20
-20 -20 -20 -20 -20 -20 -20 -20 -20 -20 -20 -20 -20 -20 -20 -20 -20 -20 -20 -20 -20 -20 -20 -20 -20 -20 -20 -20 -20 -20 -20 -20 2 -10 -20 -9 33 24 32 -20 -20 -20 -20
-20 -20 -20 -20 -20 -20 -20 -20 -20 -20 -20 -20 -20 -20 -20 -20 -20 -20 -20 -20 -20 -20 -20 -20 -20 -20 -20 -20 -20 -20 -20 -20 -20 -9 6 -10 -20 17 11 5 -20 -20 -1
-20 -20 -20 -20 -20 -20 -20 -20 -20 -20 -20 -20 -20 -20 -20 -20 -20 -20 -20 -20 -20 -20 -20 -20 -20 -20 -20 -20 -20 -20 -20 -20 -20 -19 -20 -20 -20 -16 10 1 -20 -20 -13
-20 -20 -20 -20 -20 -20 -20 -20 -20 -20 -20 -20 -20 -20 -20 -20 -20 -20 -20 -20 -20 -20 -20 -20 -20 -20 -20 -20 -19 -20 -20 -12 -13 -20 -20 -20 21 -7 16 -13 -20 -20 -20
-20 -20 -20 -20 -20 -20 -20 -20 -20 -20 -20 -20 -20 -20 -20 -20 -20 -20 -20 -20 -20 -20 -20 -20 -20 -20 -20 23 -20 -20 -19 -12 14 -20 -20 -20 -19 -20 31 13 -19 -20 -20
-20 -20 -20 -20 -20 -20 -20 -20 -20 -20 -20 -20 -20 -20 -20 -20 -20 -20 -20 -20 -20 -20 -20 -20 -20 -20 -20 -20 -20 -2 -19 -20 14 -20 -20 -20 -2 8 -20 7 11 -5 -20
-20 -20 -20 -20 -20 -20 -20 -20 -20 -20 -20 -20 -20 -20 -20 -20 -20 -20 -20 -20 -20 -20 -20 -20 -20 -20 -20 -20 -20 -20 -20 -20 -3 -19 -20 -20 -20 6 -8 19 14 11 -16
-20 -20 -20 -20 -20 -20 -20 -20 -20 -20 -20 -20 -20 -20 -20 -20 -20 -20 -20 -20 -20 -20 -20 -20 -20 -20 -20 -20 -20 -13 -20 -20 -14 -15 10 -18 -17 -19 -17 -16 13 2 -11
-20 -20 -20 -20 -20 -20 -20 -20 -20 -18 -20 -6 -6 -0 3 -16 -20 -20 -20 -20 -20 -20 -20 -20 -20 -20 -20 -20 -20 -20 -20 -20 33 27 27 -20 -14 10 -18 -20 -20 9 -18
-20 -20 -20 -20 -20 -20 -20 -20 -20 -20 -20 -20 -17 -3 -0 12 -13 -20 -20 -20 -20 -20 -20 -20 -20 -20 -20 -20 -20 -20 -17 -17 19 21 19 -15 -20 -20 6 -1 -14 12 2
-20 -20 -20 -20 -20 -20 -20 -20 -20 -20 -20 -20 2 -20 -16 10 -6 -20 -20 -20 -20 -20 -20 -20 -20 -20 -20 -20 -20 -20 -18 11 8 26 21 30 -18 -20 -20 -7 -16 15 -10
-20 -20 -20 -20 -20 -20 -20 -20 -20 -20 -20 -20 -1 -20 -20 -20 -11 -20 -20 -20 -20 -20 -20 -20 -20 -20 -20 -20 -20 -20 -20 -5 22 24 20 28 -20 -18 -18 -19 8 2 14
-20 -20 -20 -20 -20 -20 -20 -20 -20 -20 -20 -20 -20 -20 -20 -20 -20 -2 -15 -20 -20 -20 -20 -20 -20 -20 -20 -20 -20 -20 -20 -20 -20 21 9 -20 -18 -20 -20 -5 -2 7 5
-20 -20 -20 -20 -20 -20 -20 -20 -20 -20 -20 -20 -20 -20 -20 -14 -13 4 -5 -13 -20 -20 -20 -20 -3 -20 -20 -20 -20 -20 -20 -5 -6 0 21 14 6 5 -20 -20 -20 -12 15
-20 -20 -20 -20 -20 -20 -20 -20 -8 -19 -20 -20 -20 -20 -20 -16 0 6 -8 -3 -5 6 -20 3 -1 -15 15 -20 -20 -20 -20 -20 -20 9 17 19 23 19 -20 -20 -20 -19 -1
-20 -20 -20 -20 -20 -6 -20 -20 -20 -20 -19 -15 -20 -20 -20 -20 -20 -20 -20 2 0 13 0 -7 -10 -20 28 14 -20 -20 -20 -20 -20 6 16 1 5 -16 -20 -20 -20 -20 0
-20 -20 -20 -20 -4 7 2 8 -13 -20 30 7 4 -2 -14 -14 -8 10 -19 6 -5 22 -10 -20 -7 3 23 29 -19 -20 -20 3 -11 -20 -20 -20 21 4 -20 -20 -20 -20 -20
-20 -20 -20 -20 -20 -20 -20 -0 8 -2 36 9 19 14 20 -0 22 -14 -6 10 7 -5 13 10 -12 31 20 10 4 -20 -18 -20 -8 -20 -20 -16 -17 -6 -20 -20 -20 -20 -20
-20 -20 -20 -20 -20 -15 -15 -2 2 6 -17 -20 33 18 33 22 1 -1 11 17 -4 9 13 3 28 15 18 15 -8 1 -18 -20 -20 -19 -20 -18 -3 -20 -20 -20 -20 -20 -20
-20 -20 -20 -20 -20 -20 -20 -3 9 32 8 21 -2 10 7 15 2 -0 20 5 -11 -6 4 17 -14 20 -12 -9 -20 -13 -19 -20 -20 -20 -20 -20 -18 25 -11 5 16 -20 -20
-20 -20 -20 -20 -20 -20 -6 8 -6 20 22 8 -19 -20 -19 -8 -6 -0 12 -3 -10 -2 -2 4 -2 6 11 7 -15 -8 2 -20 -20 -20 -20 -20 -11 -20 10 0 -17 -18 -20

GFSSE_prec_radar_144.txt.gz
Reflectivity
-20 -20 -20 -20 -20 -20 -20 -20 -20 -20 -20 -20 -20 -20 -20 -20 -20 -20 -20 -20 -20 -20 -20 -20 -20 -20 -20 -20 -20 -20 -20 -20 -20 -20 10 21 23 20 25 34 36 16 15
-20 -20 -20 -20 -20 -20 -20 -20 -20 -20 -20 -20 -20 -20 -20 -20 -20 -20 -20 -20 -20 -20 -20 -20 -20 -20 -20 -20 -20 -20 -20 -20 -20 -19 6 -19 -20 8 11 36 36 27 20
-20 -20 -20 -20 -20 -20 -20 -20 -20 -20 -20 -20 -20 -20 -20 -20 -20 -20 -20 -20 -20 -20 -20 -20 -20 -20 -20 -20 -20 -20 -20 -20 -20 -20 17 -18 -18 -9 18 31 35 18 24
-20 -20 -20 -20 -20 -20 -20 -20 -20 -20 -20 -20 -20 -20 -20 -20 -20 -20 -20 -20 -20 -20 -20 -20 -20 -20 -20 -20 -20 -20 -20 -20 -20 -20 -20 -20 -20 -4 7 28 32 20 22
-20 -20 -20 -20 -20 -20 -20 -20 -20 -20 -20 -20 -20 -20 -20 -20 -20 -20 -20 -20 -20 -20 -20 -20 -20 -20 -20 -20 -20 -20 -20 -20 -20 -20 -20 -20 -20 19 24 29 34 29 7
-20 -20 -4 -20 -20 -20 -20 -20 -20 -20 -20 -20 -20 -20 -20 -20 -20 -20 -20 -20 -20 -20 -20 -20 -20 -20 -20 -20 -20 -20 -20 -20 -20 -20 -20 -20 29 -19 17 24 33 10 -5
-20 -20 -20 -20 -20 -20 -20 -20 -20 -20 -20 -20 -20 -20 -20 -20 -20 -20 -20 -20 -20 -20 -20 -20 -20 -20 -20 -20 -20 -20 -20 -20 -20 -13 15 -2 -9 18 18 26 7 -13 -20
-20 -20 -20 -20 -20 -20 -20 -20 -20 -20 -20 -20 -20 -20 -20 -20 -20 -20 -20 -20 -20 -20 -20 -20 -20 -20 -20 -20 -20 -20 -20 -20 -20 -20 -20 -0 -20 27 1 13 4 -20 -20
-20 -20 -20 -20 -20 -20 -20 -20 -20 -20 -20 -20 -20 -20 -20 -20 -20 -20 -20 -20 -20 -20 -20 -20 -20 -20 -20 -20 -20 -20 -20 -20 -20 -20 -20 -20 -20 9 -12 5 12 -13 -20
-20 -20 -20 -20 -20 -20 -20 -20 -20 -20 -20 -20 -20 -20 -20 -20 -20 -20 -20 -20 -20 -20 -20 -20 -20 -20 -20 -20 -20 -20 -20 -20 -20 -20 -20 -20 -20 -16 -13 1 5 -20 -20
-20 -20 -20 -20 -20 -20 -20 -20 -20 -20 -20 -20 -6 -20 -1 -20 -20 -20 -20 -20 -20 -20 -20 -20 -20 -20 -20 -20 -20 -20 -16 -20 -20 -20 -20 -20 -20 -15 1 -20 -20 -20 -20
-20 -20 -20 -20 -20 -20 -20 -20 -5 -20 -20 -20 -20 -20 -20 -20 -20 -20 -20 -20 -20 -20 -20 -20 -20 -20 -20 -20 -17 -20 -20 -20 -20 -20 -20 -20 -11 -20 23 24 -20 -20 -20
-20 -20 -20 -20 -20 -20 -20 -20 -20 -20 -20 -20 -20 -20 -20 -8 3 -20 -20 -20 -20 -20 -20 -20 -17 -20 -20 -20 -20 -20 -20 -20 -20 -20 -20 -20 23 30 30 25 -13 -20 -20
-20 -20 -20 -20 -20 -20 -20 -20 -20 -20 -5 -14 -18 1 2 -10 -12 -20 -20 -20 -20 -20 -20 -20 -20 -20 -20 -20 -20 -20 -20 -20 -20 -16 -19 -14 -6 33 26 7 -12 -0 -20
-20 -20 -20 -20 -20 -20 -20 -20 -20 -20 -11 -20 -20 1 -0 -20 -20 -20 -20 -20 -20 -20 -20 -20 -20 -20 -4 -20 -20 -20 -20 -20 -20 -18 17 13 9 17 29 22 -2 2 -20
-20 -20 -20 -20 -20 -20 -20 -20 -20 -20 -20 -20 -20 -20 -19 -20 -20 -20 -20 -20 -20 -20 -20 -20 -20 -20 -20 -20 -20 -20 -20 -20 -20 -20 -10 4 8 -13 -18 24 -8 10 1
-20 -20 -20 -20 -20 -20 -20 -20 -20 -20 -20 -20 -20 -20 -5 -13 -15 -20 -20 1 -20 -20 -20 -20 -20 -20 -20 -20 -20 -0 -20 -20 23 -20 -20 -17 -13 13 -11 -20 -14 24 9
-20 -20 -20 -20 -20 -20 -20 -20 -20 -20 -20 -20 -20 -20 -20 -7 -20 -20 -5 -20 -0 -20 -20 -20 -20 0 -20 -20 -20 -20 -20 -20 -20 -20 -20 -20 -20 5 19 -20 -20 -20 -14
-20 -20 -20 -20 -20 -20 -20 -20 -20 -20 -20 -20 -20 -20 -18 -5 -10 1 -20 -10 7 -16 -14 -20 -20 -20 -20 -20 -20 -20 -20 -20 -7 -20 -20 -20 -20 22 32 -14 -20 -7 -20
-20 -20 -20 -20 -20 -20 -20 -20 -20 -20 -20 -20 -20 -20 -20 1 -1 8 -20 -4 -19 6 -16 -15 -6 -7 -20 -20 -20 -20 -9 -20 -10 16 -1 -20 15 22 22 24 -20 -20 -20
-20 -20 -20 -20 -20 -20 -20 -20 -20 -20 -20 -20 -20 -20 -20 -20 1 7 -2 9 12 6 10 9 -9 -20 3 -16 -5 9 9 -0 1 -12 10 0 -20 8 11 25 22 4 -20
-20 -20 -20 -20 -20 -20 -20 -20 -20 -20 -20 -20 -20 -20 -20 -20 -6 5 8 -12 -3 13 12 7 -14 -2 10 6 -1 -0 2 12 3 -2 1 -2 -20 -20 1 24 26 21 -16
-20 -20 -20 -20 -20 -20 -20 -20 -20 -20 -20 -18 2 8 -2 -20 -20 3 -2 9 -12 1 10 9 21 25 5 24 4 -10 2 0 2 1 1 -4 -1 -10 7 -11 21 20 -20
-20 -20 -20 -20 -20 -20 -20 -20 -20 -20 -20 -20 -13 5 9 10 -15 3 8 7 -20 25 43 12 6 -7 26 14 -2 -13 -20 6 14 1 3 -6 6 7 4 3 -20 25 -8
-20 -20 -20 -20 -20 -20 -20 -20 -20 -20 -20 -11 9 9 -12 16 12 8 14 -19 -13 3 16 33 26 9 24 23 7 -3 3 13 7 -20 4 -0 5 -16 4 -6 -4 -4 21
-20 -20 -18 -5 5 -20 -13 -16 -20 -20 12 17 18 -8 13 15 16 29 17 25 20 -15 -20 -9 30 22 23 12 4 -7 -3 6 -20 -20 -20 -9 -20 -9 -13 1 -2 5 12

GFSSE_prec_radar_147.txt.gz
Reflectivity
-20 -20 -20 -20 -20 -20 -20 -20 -20 -20 -20 -20 -20 -20 -20 -20 -20 -20 -20 -20 -20 -20 -20 -20 -20 -20 -20 -20 -20 -20 -20 -20 -20 -20 -20 -20 -20 3 -20 -20 16 27 40
-20 -20 -20 -20 -20 -20 -20 -20 -20 -20 -20 -20 -20 -20 -20 -20 -20 -20 -20 -20 -20 -20 -20 -20 -20 -20 -20 -20 -20 -20 -20 -20 -20 -20 -20 -20 -7 -20 -20 -15 7 31 37
-20 -20 -20 -20 -20 -20 -20 -20 -20 -20 -20 -20 -20 -20 -20 -20 -20 -20 -20 -20 -20 -20 -20 -20 -20 -20 -20 -20 -20 -20 -20 -20 -20 -20 -20 -20 5 -20 -20 -20 21 36 35
-20 -20 -20 -20 -20 -20 -20 -20 -20 -20 -20 -20 -20 -20 -20 -20 -20 -20 -20 -20 -20 -20 -20 -20 -20 -20 -20 -20 -20 -20 -20 -20 -20 -20 -20 3 -20 -20 -20 -8 22 36 37
-20 -20 -20 -20 -20 -20 -20 -20 -20 -20 -20 -20 -20 -20 -20 -20 -20 -20 -20 -20 -20 -20 -20 -20 -20 -20 -20 -20 -20 -20 -20 -20 -20 -20 -6 -20 -16 -6 -20 12 8 37 36
-20 -20 1 -20 -20 -20 -20 -20 -20 -20 -20 -20 -20 -20 -20 -20 -20 -20 -20 -20 -20 -20 -20 -20 -20 -20 -20 -20 -20 -20 -20 -20 -20 29 37 21 -20 -20 32 32 20 34 28
-20 -20 -20 -20 -20 -20 -20 -20 -20 -20 -20 -20 -20 -20 -20 -20 -20 -20 -20 -20 -20 -20 -20 -20 -20 -20 -20 -20 -20 -20 -20 -20 -20 29 -20 -20 -20 -20 22 27 30 24 14
-20 -20 -20 -20 -20 -20 -20 -20 -20 -20 -20 -20 -20 -20 -20 -20 -20 -20 -20 -20 -20 -20 -20 -20 -20 -20 -20 -20 -20 -20 -20 -20 -20 -20 0 -20 -20 -12 18 25 16 18 2
-20 -20 -20 -20 -20 -20 -20 -20 -20 -20 -20 -20 -20 -20 -20 -20 -20 -20 -20 -20 -20 -20 -20 -20 -20 -20 -20 -20 -20 -20 -20 -20 9 -19 -20 20 -20 -16 -4 3 2 -9 -19
-20 -20 -20 -20 -20 -20 -20 -20 -20 -20 -20 -20 -20 -20 -20 -19 -20 -20 -20 -20 -20 -20 -20 -20 -20 -20 -20 -20 -20 -20 -20 -20 5 37 -20 30 29 -18 -20 -20 -7 -2 6
-20 -20 -20 -20 -20 -20 -20 -20 -20 -20 -20 -20 -8 -20 -1 -20 -20 -20 -20 -20 -20 -20 -20 -20 -20 -20 -20 -19 -20 -20 -20 -20 -11 4 -16 -12 -20 -18 -13 -20 -15 9 -0
-20 -20 -20 -20 -20 -20 -20 -20 -20 -20 -20 -20 -20 -20 -20 -20 -20 -20 -20 -20 -20 -20 -20 -20 -20 -20 -20 -20 -20 -11 -20 4 -17 -17 -17 16 -20 -17 4 22 6 -16 -20
-20 -20 -20 -20 -20 -20 -20 -20 -20 -20 -20 -20 -20 -20 -20 -20 -20 -20 -20 -20 -20 -20 -20 -20 -20 -20 -20 -20 -20 -20 -20 -10 -20 -2 17 -14 -20 25 30 35 23 -20 -20
-20 -20 -20 -20 -20 -20 -20 -20 -20 -20 -20 -20 -20 -20 2 -20 -20 -20 -20 -20 -20 -20 -20 -20 -20 -20 -20 -20 0 -20 -20 -19 -17 -20 7 -4 -20 -20 21 32 31 -18 -20
-20 -20 -20 -20 -20 -20 -20 -20 -20 -20 -20 -20 -20 -20 -20 -20 -13 -20 -20 -20 -20 -20 -20 -20 -20 -20 -20 -20 -20 -18 -19 -20 -4 -20 -20 -20 -16 -5 4 27 33 13 -10
-20 -20 -20 -20 -20 -20 -20 -20 -20 -20 -20 -20 -20 -20 -16 -8 5 -20 -20 -20 -20 -20 -20 -20 -20 -20 -20 -20 -20 -18 -20 -4 -17 -20 -20 -20 -20 4 19 28 28 -4 21
-20 -20 -20 -20 -20 -20 -20 -20 -20 -20 -20 -20 -20 -20 -20 -7 -19 -20 -20 -20 -20 -20 -20 -20 -20 -20 -20 -20 -20 -20 -17 -8 -7 -20 -20 -20 -20 -18 4 -19 29 8 -2
-20 -20 -20 -20 -20 -20 -20 -20 -20 -20 -20 -20 -20 -20 -20 -18 -19 -20 -20 -20 -20 -20 -20 -20 -20 -20 -20 -20 -20 -19 1 -20 -16 -9 -20 -20 -20 -20 -20 -20 -20 -20 -14
-20 -20 -20 -20 -20 -0 -20 -20 -20 -20 -20 -20 -20 -20 -20 -20 -18 -11 -20 -20 -20 -20 -20 -20 -20 -20 -20 -20 -15 -20 -18 -20 -20 -20 -20 -20 -20 -20 -20 15 -16 -20 -20
-20 -20 -20 -20 -20 -20 -20 -20 -20 -20 -20 -20 -20 -20 -20 -20 -3 -2 -20 -20 -20 8 -20 -20 -20 -20 -1 -20 -20 -20 -20 -20 -20 -20 -13 -14 -20 -20 -20 -5 27 23 -20
-20 -20 -20 -20 -20 -20 -20 -20 -20 -20 -20 -20 -20 -20 -20 -20 -9 -20 7 -20 0 3 -20 -13 3 1 5 -20 -20 -12 -0 -20 1 1 -20 -20 -20 -20 -20 -20 7 16 -15
-20 -20 -20 -20 -20 -20 -20 -20 -20 -20 -20 -20 -20 -20 -20 -20 9 -16 8 3 6 7 13 4 3 7 12 8 6 26 14 -12 -16 -7 -15 -15 5 -20 -20 -20 26 -7 19
-20 -20 -20 -20 -20 -20 -20 -20 -20 -20 -20 -20 -20 -20 -20 -20 -8 -20 13 13 8 15 13 2 -20 -11 9 -17 18 -18 -6 -20 3 -5 1 -20 -7 9 -20 -20 -17 7 25
-20 -20 -20 -20 -20 -20 -20 -20 -20 -20 -20 -20 -20 -20 -20 -18 -4 8 8 14 16 16 14 11 -2 -20 -14 -3 26 27 26 -14 20 18 1 -20 0 -8 -15 -6 6 11 13
-20 -20 -20 -20 -20 -20 -20 -19 -20 -20 -20 -20 -20 -20 -20 -20 -5 11 16 13 19 33 14 6 12 -2 -20 -3 35 26 -3 1 24 26 23 -6 -18 -17 15 -4 8 9 -19
-20 -20 -20 -20 -20 -20 -20 -20 -20 -18 -9 -20 -20 -20 11 7 6 12 12 0 -6 9 16 29 -1 10 25 -12 -1 3 28 12 19 24 22 21 -20 -20 -1 -11 10 2 3

GFSSE_prec_radar_150.txt.gz
Reflectivity
-20 -20 -20 -20 -20 -20 -20 -20 -20 -20 -20 -20 -20 -20 -20 -20 -20 -20 -20 -20 -20 -20 -20 -20 -20 -20 -20 -20 -20 -20 -20 -20 -20 -20 -20 -20 -20 -20 -20 -20 -20 -20 -20
-20 -20 -20 -20 -20 -20 -20 -20 -20 -20 -20 -20 -20 -20 -20 -20 -20 -20 -20 -20 -20 -20 -20 -20 -20 -20 -20 -20 -20 -20 -20 -20 -20 -20 -20 -20 -20 -20 -20 -20 -20 -20 -11
-20 -20 -20 -20 -20 -20 -20 -20 -20 -20 -20 -20 -20 -20 -20 -20 -20 -20 -20 -20 -20 -20 -20 -20 -20 -20 -20 -20 -20 -20 -20 -20 -20 -20 -20 -20 -20 -20 -20 -20 -20 0 17
-20 -20 -20 -20 -20 -20 -20 -20 -20 -20 -20 -20 -20 -20 -20 -20 -20 -20 -20 -20 -20 -20 -20 -20 -20 -20 -20 -20 -20 -20 -20 -20 -20 -12 28 5 -20 -20 -10 26 0 3 35
-20 -20 -20 -20 -20 -20 -20 -20 -20 -20 -20 -20 -20 -20 -20 -20 -20 -20 -20 -20 -20 -20 -20 -20 -20 -20 -20 -20 -20 -20 -20 -20 -20 -20 10 33 -10 -20 -20 16 7 31 35
-20 -20 -20 -20 -20 -20 -20 -20 -20 -20 -20 -20 -20 -20 -20 -20 -20 -20 -20 -20 -20 -20 -20 -20 -20 -20 -20 -20 -20 -20 -20 -20 -20 -20 -10 23 -20 -20 -20 -20 -0 17 32
-20 -20 -20 -20 -20 -20 -20 -20 -20 -20 -20 -20 -20 -20 -20 -20 -20 -20 -20 -20 -20 -20 -20 -20 -20 -20 -20 -20 -20 -20 -20 -20 -20 21 34 29 -20 -20 -20 13 13 24 32
-20 -20 -20 -20 -20 -20 -20 -20 -20 -20 -20 -20 -20 -20 -20 -20 -20 -20 -20 -20 -20 -20 -20 -20 -20 -20 -20 -20 -20 -20 -20 -20 -20 11 -8 -15 -20 -20 -20 2 -20 -4 23
-20 -20 -20 -20 -20 -20 -20 -20 -20 -20 -20 -20 -20 -20 -20 -20 -20 -20 -20 -20 -20 -20 -20 -20 -20 -20 -20 -20 -20 -20 -20 -20 -20 23 19 -20 16 -20 -20 -20 -20 -20 -18
-20 -20 -20 -20 -20 -20 -20 -20 -20 -20 -20 -20 -20 -20 -20 -20 -20 -20 -20 -20 -20 -20 -20 -20 -20 -20 -20 -20 -20 -20 -20 -20 -18 -8 26 -20 -20 -20 -20 -20 -20 -20 -20
-20 -20 -20 -20 -20 -20 -20 -20 -20 -20 -20 -20 -20 -20 -14 -20 -20 -20 -20 -20 -20 -20 -20 -20 -20 -20 -20 -20 -20 -20 -20 -20 -20 -19 -20 -20 11 -20 -20 -7 -18 -1 2
-20 -20 -20 -18 -15 -20 -20 -20 -20 -20 -20 -20 -20 -20 -20 -20 -20 -20 -20 -20 -20 -20 -20 -20 -20 -20 -20 -20 -20 -20 -20 -20 -20 -20 -3 -20 -20 -20 5 4 16 -20 6
-20 -20 -20 -20 -17 7 -20 -20 -20 -20 -20 -20 -20 -20 -20 -20 -20 -20 -20 -20 -20 -20 -20 -20 -20 -20 -20 -20 -20 -20 -20 -20 -20 -14 22 -4 -19 -20 -8 -1 21 2 -20
-20 -20 -20 -20 -20 -20 -20 -20 -20 -20 -20 -20 -20 -20 -20 -20 -20 -20 -20 -20 -20 -20 -20 -20 -20 -20 -20 -20 -20 -19 -20 -20 -13 -20 -20 -20 -20 -20 -20 -20 -12 16 -20
-20 -20 -20 -20 -20 -20 -20 -20 -20 -20 -20 -20 -20 -20 -20 -20 -20 -20 -20 -20 -20 -20 -20 -20 -20 -20 -20 -20 -20 -1 -2 -19 10 -8 -20 -20 -20 -20 -20 -20 -19 28 -15
-20 -20 -20 -20 -20 -20 -20 -20 4 -20 -20 -20 -20 -20 -20 -20 -20 -4 -20 -20 -20 -20 -20 -20 -20 -20 -20 -20 -20 -9 8 1 9 0 -20 -20 -20 -20 -20 -20 -20 22 21
-20 -20 -20 -20 -20 -20 -20 -20 -20 -20 -20 -20 -20 -20 -20 -20 -3 -20 -20 -20 -20 -20 -20 -20 -20 -20 -20 -20 -20 -18 -18 -19 3 -2 -20 -20 -20 -20 -20 -17 -19 -1 22
-20 -20 -20 -20 -20 -20 17 19 -10 -17 -20 -20 -20 -20 -20 -20 -20 -18 -20 -20 -20 -20 -20 -20 -20 -20 -20 -20 -20 -20 -20 -20 -20 1 -12 -20 -20 -20 -20 -20 -19 -20 10
-20 -20 -20 -20 -20 -20 -20 -9 32 36 10 -20 -20 -20 -20 -20 -20 -20 -20 -20 -20 -20 -20 -20 -20 -20 -20 -20 -20 -20 -20 -20 -10 -20 -11 -20 -20 -20 -20 -20 -20 -20 -20
-20 -20 -20 -20 -20 -20 -20 -20 -4 32 34 -20 -19 -9 -20 6 -20 -20 -20 -20 -20 -8 -20 -20 -20 -20 -20 -20 -20 -3 -20 -20 -20 -20 -1 -20 -20 -20 -20 -20 -20 -20 -1
-20 -20 -20 -20 -20 -20 -20 -20 -20 -20 -20 -20 -18 -20 -20 -20 -11 -20 -20 -20 -20 -20 -20 31 -20 -20 -20 -20 -20 -11 31 -20 -20 -20 -20 4 -20 -20 -20 -20 -20 -20 -20
-20 -20 -20 -20 -20 -20 -20 -20 -20 -20 -20 -20 -20 -20 -20 -20 10 -6 -19 -20 -19 -2 -6 9 -15 -20 -20 -18 -20 -20 -20 -20 -20 -20 -20 -20 -18 -2 -18 -20 -20 -20 -20
-20 -20 -20 -20 -20 -20 -20 -20 -20 -20 -20 -20 -20 -20 -20 -20 -20 -17 -16 -16 -20 29 -1 -6 6 -20 -20 -20 -20 -20 -4 -12 -20 -20 -20 -20 -20 -20 -1 -19 -20 -20 -20
-20 -20 -20 -20 -20 -20 -20 -20 -20 -20 -20 -20 -20 -20 -20 -20 -20 -16 -20 -17 -12 -19 14 12 5 -4 -16 -20 25 -20 -20 -20 -20 -4 16 -20 -20 -9 -7 12 10 -20 2
-20 -20 -20 -20 -20 -20 -20 -20 -20 -20 -20 -20 -20 -20 -20 -20 -20 -20 -17 -20 -19 -18 -16 15 3 9 -20 17 -3 38 31 -6 -19 21 37 25 13 -20 -20 -9 14 -11 4
-20 -20 -20 -20 -20 -20 -20 -20 -20 -20 -20 -20 -20 -20 -0 -20 -20 35 20 4 -20 -5 -19 -17 -20 -15 -3 36 -9 28 28 26 -20 -1 13 18 20 17 -13 -20 -8 6 -5

GFSSE_prec_radar_153.txt.gz
Reflectivity
-20 -20 -20 -20 -20 -20 -20 -20 -20 -20 -20 -20 -20 -20 -20 -20 -20 -20 -20 -20 -20 -20 -20 -20 -20 -20 -20 -20 -20 -20 -20 -20 -20 -20 -20 -20 -20 -20 -20 -20 -20 -20 11
-20 -20 -20 -20 -20 -20 -20 -20 -20 -20 -20 -20 -20 -20 -20 -20 -20 -20 -20 -20 -20 -20 -20 -20 -20 -20 -20 -20 -20 -20 -20 -20 -20 -19 -20 -19 -20 -20 -18 25 -20 -20 -7
-20 -20 -20 -20 -20 -20 -20 -20 -20 -20 -20 -20 -20 -20 -20 -20 -20 -20 -20 -20 -20 -20 -20 -20 -20 -20 -20 -20 -20 -20 -20 -20 -20 -20 -20 -20 -20 -20 -20 -20 -20 -15 2
-20 -20 -20 -20 -20 -20 -20 -20 -20 -20 -20 -20 -20 -20 -20 -20 -20 -20 -20 -20 -20 -20 -20 -20 -20 -20 -20 -20 -20 -20 -20 -20 -20 -20 -20 -20 -20 -20 -20 4 -4 -7 6
-20 -20 -20 -20 -20 -20 -20 -20 -20 -20 -20 -20 -20 -20 -20 -20 -20 -20 -20 -20 -20 -20 -20 -20 -20 -20 -20 -20 -20 -20 -20 -20 -20 -20 -20 -20 -20 -20 -20 -20 -15 9 23
-20 -20 -20 -20 -20 -20 -20 -20 -20 -20 -20 -20 -20 -20 -20 -20 -20 -20 -20 -20 -20 -20 -20 -20 -20 -20 -20 -20 -20 -20 -20 -20 -20 -20 -20 -20 -20 -20 -20 -20 -15 -2 24
-20 -20 -20 -20 -20 -20 -20 -20 -20 -20 -20 -20 -20 -20 -20 -20 -20 -20 -20 -20 -20 -20 -1 -20 -20 -20 -20 -20 -20 -20 -20 -20 -20 -20 -20 -13 -20 -20 -20 5 3 -20 9
-20 -20 -20 -20 -20 -20 -20 -20 -20 -20 -20 -20 -20 -20 -20 -20 -20 -20 -20 -20 -20 -20 -20 -20 -20 -20 -20 -20 -20 -20 -20 -20 -20 -20 -20 -20 -20 -2 -20 -20 -20 6 -3
-20 -20 -20 -20 -20 -20 -20 -20 -20 -20 -20 -20 -20 -20 -20 -20 -20 -20 -20 -20 -20 -20 -20 -20 -20 -20 -20 -20 -20 -20 -20 -20 -20 -3 1 -20 -20 -20 -20 -20 -19 11 -20
-20 -20 -20 -20 -20 -20 -20 -20 -20 -20 -20 -20 -20 -20 -20 -20 -20 -20 -20 -20 -20 -20 -20 -20 -20 -20 -20 -20 -20 -20 -20 -20 -20 -20 -20 -20 -20 -20 -20 -20 -20 -20 -20
-20 -20 -20 -20 -20 -20 -20 -20 -20 -20 -20 -20 -20 -20 -17 -20 -20 -20 -20 -20 -20 -20 -20 -20 -20 -20 -20 -20 -20 -20 -20 -20 -20 -20 -20 -20 -4 -20 -20 -20 -20 -20 -20
-20 -20 -20 -20 -20 -20 -20 -20 -20 -20 -20 -20 -20 -20 -20 -20 -20 -20 -20 -20 -20 -20 -20 -20 -20 -20 -20 -20 -20 -20 -20 -20 -20 -20 -20 -20 8 -20 -20 -20 -20 -20 -20
-20 -20 -20 -20 -20 -20 -20 -20 -20 -20 -20 -20 -20 -20 -20 -20 -20 -20 -20 -20 -20 -20 -20 -20 -20 -20 -20 -20 -20 -20 -20 -20 -20 -20 -20 -18 28 -20 -20 -20 -20 -20 -20
-20 -20 -20 -20 5 10 -12 -20 -20 -20 -20 -20 -20 -20 -20 -20 -20 -20 -20 -20 -20 -20 -20 -20 -20 -20 -20 -20 -20 -20 -20 -20 -20 -20 -20 -20 -20 -20 -20 -20 -20 -20 -1
-20 -20 -20 -20 -20 6 21 18 1 -20 -20 -20 -20 -20 -20 -20 -20 -20 -20 -20 -20 -20 -20 -20 -20 -20 -20 -20 -20 -20 -20 -20 -20 -20 -20 -20 -20 10 -20 -20 -20 -20 9
-20 -20 -20 -20 -20 -20 -20 25 10 0 -18 -18 -20 -20 -20 -20 -20 -20 -20 -20 -20 -20 -20 -20 -20 -20 -20 -20 -20 -20 -20 -20 -20 -20 -20 -20 -20 -20 -20 -20 -20 -20 -19
-20 -20 -20 -20 -20 -20 -20 -20 -19 11 34 -5 7 7 -20 -20 -20 -20 -20 -20 -20 -20 -20 -20 -20 -20 -20 -20 -20 -20 -20 -20 -20 -20 -20 -20 -20 -20 -20 -20 -20 8 3
-20 -20 -20 -20 -20 -20 -20 -20 -20 -18 -20 -20 17 12 19 5 -19 -20 -20 -11 -20 -20 -17 -20 -20 -20 -20 -20 -20 -20 -20 -20 -20 -20 -20 -20 -20 -20 -20 -20 -20 -17 -3
-20 -20 -20 -20 -20 -20 -20 -20 -20 -20 -20 -20 -20 -3 11 15 20 9 -20 -20 -20 -20 -20 -20 -20 -20 -20 -20 -20 -20 -20 -20 -20 -20 -20 -20 -20 -20 -20 -20 -20 -20 -20
-20 -20 -20 -20 -20 -20 -20 -20 -20 -20 -20 -18 1 -20 15 19 23 12 13 5 -20 15 -3 -20 -20 -20 -20 -20 -20 -17 8 -20 -20 -20 -20 -20 -20 -9 -20 -20 -20 -20 -20
-20 -20 -20 -20 -20 -20 -20 -20 -20 -20 -20 -20 -20 -20 10 22 14 -7 -10 9 0 -18 -20 -20 -17 -20 -18 -20 -20 -20 -20 -20 -20 -20 -20 -20 -20 -20 -20 -20 -20 -20 -20
-20 -20 -20 -20 -20 -20 -20 -20 -20 -20 -20 -20 -20 -20 -20 0 11 -9 -6 23 18 -7 5 10 -20 34 26 30 16 26 17 28 -20 -20 -20 -20 -20 -20 -20 -20 -20 -20 -20
-20 -20 -20 -20 -20 -20 -20 -20 -20 -20 -20 -20 -20 -20 -20 -20 -20 4 -19 -9 15 -15 -16 5 31 34 -16 7 28 -7 15 -20 -20 -20 -20 -20 -20 -20 -20 -20 -20 -20 -20
-20 -20 -20 -20 -20 -20 -20 -20 -20 -20 -20 -20 -20 -20 -20 -20 -20 20 -9 37 2 -20 -4 31 35 23 27 36 33 33 23 -20 -20 21 6 -13 -20 -20 -20 -20 -20 -20 -20
-20 -20 -20 -20 -20 -20 -20 -20 -20 -20 -20 -20 -20 -20 -20 -20 -20 -20 -18 17 -20 36 15 -17 6 32 12 30 33 10 32 27 -8 -19 27 18 28 -3 -17 -0 12 -20 -20
-20 -20 -20 -20 -20 -20 -20 -20 -20 -20 -20 -20 -20 -20 -20 -20 -20 -20 -15 -8 -20 -3 31 -20 -4 -4 6 25 31 33 35 31 27 16 40 38 18 -20 -19 24 21 -18 6